GFSNIL_sfc_wetblb_003.txt.gz
Wetbulb
48.58 47.51 46.19 46.15 46.00 44.28 43.71 43.85 44.74 45.34 45.84 46.29 46.36 45.87 46.08 46.11 45.06 43.17 42.12 39.92 39.62 39.13
46.40 45.73 45.12 44.81 43.74 42.92 43.03 44.13 44.34 45.00 44.57 44.69 44.65 44.49 44.24 43.29 42.51 41.67 40.89 40.28 39.79 39.40
45.08 44.57 43.22 41.88 41.43 41.72 43.12 43.65 43.25 42.21 42.13 41.96 42.00 41.85 41.19 41.04 41.49 41.01 41.07 40.59 40.40 40.33
43.56 41.38 40.40 40.69 41.23 41.57 42.60 41.70 41.18 40.87 40.89 40.48 40.00 38.95 39.20 39.39 39.01 38.59 38.71 39.14 38.71 37.67
40.76 39.36 39.64 39.92 40.79 41.98 41.59 40.98 40.64 40.26 39.89 39.44 39.02 40.21 38.76 37.36 37.06 36.30 35.77 35.98 36.12 35.58
40.06 39.03 38.91 40.98 41.65 42.10 41.72 41.57 41.23 40.33 39.54 39.37 37.98 37.36 36.59 35.78 35.36 35.37 35.21 34.80 33.90 33.48
40.24 39.77 40.14 40.67 41.45 41.20 41.09 40.33 38.96 39.81 39.91 38.27 36.31 35.37 35.33 34.85 33.99 33.30 32.69 32.55 32.50 32.12
41.16 40.83 38.97 38.34 38.74 39.64 40.44 40.18 39.65 38.86 37.40 34.91 34.17 33.77 34.40 33.21 32.40 32.03 31.63 32.20 31.71 31.60
37.28 38.45 38.37 38.23 38.10 37.48 36.27 34.74 34.26 33.37 32.59 32.56 32.69 33.45 31.93 32.60 32.60 31.77 30.91 30.09 30.45 30.55
38.07 36.49 34.95 34.89 34.39 33.53 32.94 33.08 32.31 31.96 31.97 32.08 32.30 30.71 30.93 30.35 31.01 30.26 29.61 28.81 28.54 28.45
36.08 33.74 33.85 33.49 32.52 32.07 31.99 31.16 30.87 30.96 31.02 30.26 29.88 28.61 28.70 28.57 29.61 28.99 28.47 28.30 28.33 28.37
33.42 32.78 32.27 31.17 30.73 31.05 30.45 30.23 29.98 29.53 28.99 28.39 28.36 27.46 27.24 27.54 28.34 27.65 27.22 28.04 28.73 28.64
32.76 31.98 31.13 30.55 30.09 30.15 30.00 29.16 28.79 27.58 28.22 27.29 27.18 26.68 26.60 27.04 27.47 26.20 26.24 27.51 28.35 28.10
32.25 31.31 31.23 30.03 30.20 29.39 29.09 28.01 27.10 26.74 26.99 26.94 26.28 26.08 25.73 25.90 26.35 25.64 25.88 26.50 27.29 29.12

GFSNIL_sfc_wetblb_006.txt.gz
Wetbulb
52.53 51.84 50.37 49.59 48.25 47.39 47.63 48.33 49.26 48.85 49.14 49.22 49.11 48.95 48.87 46.38 44.60 45.04 45.28 43.90 42.26 41.44
51.76 50.11 48.49 47.99 47.65 47.37 47.95 47.64 47.81 48.32 47.38 45.83 45.98 45.73 45.02 43.44 41.93 42.10 41.98 42.98 42.82 42.96
49.33 48.63 47.13 46.56 46.15 46.46 46.98 47.62 46.32 45.18 44.74 44.34 44.51 44.44 43.61 42.43 41.12 40.48 40.55 39.72 39.36 40.56
47.76 46.46 46.10 45.79 45.61 45.62 45.81 45.07 44.48 44.10 43.90 43.24 41.62 41.10 40.64 40.26 40.64 40.34 39.83 39.94 39.85 39.22
46.11 45.91 45.20 44.99 45.01 44.47 44.08 44.50 44.01 43.01 41.74 41.73 41.25 40.84 39.70 39.58 40.07 39.19 38.41 38.59 38.69 38.03
45.44 45.10 44.27 43.71 43.26 43.29 42.34 42.05 41.85 41.69 41.07 40.49 40.18 40.49 40.06 39.26 38.75 38.82 38.67 38.10 37.22 36.68
44.64 43.71 42.99 41.96 42.32 41.90 41.80 41.09 40.71 40.23 39.64 39.41 38.51 38.06 38.10 37.70 37.26 36.87 36.55 36.47 36.16 35.80
42.33 42.19 41.86 41.34 40.77 40.42 39.70 38.87 38.54 37.75 37.65 37.57 37.10 36.54 35.82 35.79 36.13 35.88 35.59 35.55 35.22 35.40
41.46 41.10 40.11 39.42 38.85 38.30 37.73 37.48 37.18 36.60 36.36 35.98 35.83 32.13 31.61 32.41 33.96 34.28 34.00 33.74 34.55 34.63
40.99 39.16 38.37 37.85 37.15 36.65 36.56 36.72 35.93 35.72 35.49 34.96 35.12 29.95 29.86 29.53 31.73 32.11 32.44 32.74 32.67 32.28
39.15 37.57 37.15 36.52 36.00 36.10 36.11 35.45 35.09 34.73 34.13 33.71 33.53 30.19 28.76 27.98 30.55 31.64 31.84 32.03 32.17 31.66
38.06 36.75 35.90 35.47 35.47 35.66 35.09 34.69 34.26 33.57 32.92 32.27 32.12 30.11 28.00 27.77 29.35 29.43 29.63 30.76 31.44 30.31
38.06 36.28 35.19 35.39 35.44 35.67 35.31 33.92 33.29 32.08 32.20 30.60 30.28 28.92 27.34 27.40 28.21 27.05 27.29 28.49 29.00 29.46
37.70 35.79 35.82 35.72 36.04 35.37 34.45 32.98 31.02 30.84 30.20 30.19 29.40 28.46 27.09 26.52 26.13 26.95 25.91 26.71 28.57 30.46

GFSNIL_sfc_wetblb_012.txt.gz
Wetbulb
51.70 49.59 48.60 47.28 45.66 44.97 44.75 45.09 46.06 46.11 46.17 45.44 44.71 44.29 43.82 43.63 42.69 41.70 42.10 40.08 41.35 39.75
49.82 48.87 47.23 46.21 45.77 44.95 45.43 45.37 44.56 44.51 43.88 43.83 42.92 43.17 42.50 41.07 40.81 41.47 40.68 39.97 39.76 39.30
48.24 47.91 46.58 45.91 44.85 44.50 44.06 44.08 43.52 43.54 43.40 43.06 42.45 42.20 41.56 40.75 40.79 40.15 40.32 39.85 39.77 39.29
47.22 46.87 46.29 45.21 43.98 43.35 42.93 43.29 43.22 42.67 42.09 41.64 41.23 40.80 40.10 39.97 40.27 39.06 38.21 38.60 38.92 38.36
46.69 45.57 44.09 43.78 42.81 42.25 41.84 42.28 41.40 41.00 40.23 40.00 39.43 38.99 38.58 37.88 37.89 37.61 36.90 36.78 36.45 36.67
44.74 43.45 42.29 42.04 41.93 41.87 41.11 40.65 39.34 38.25 37.25 36.90 36.78 36.00 35.61 35.26 35.14 33.93 33.49 33.48 33.41 34.21
43.36 42.39 41.53 41.50 40.82 40.36 39.95 38.31 37.53 37.44 37.24 36.98 36.24 36.01 35.09 34.58 33.06 32.26 32.17 32.12 32.06 32.22
43.58 42.93 41.63 41.11 40.58 39.65 38.68 37.77 37.28 36.33 36.07 35.88 35.68 34.19 31.77 31.57 30.46 29.86 29.75 30.00 30.99 31.83
43.71 42.24 41.22 40.43 39.80 38.59 37.19 36.76 35.91 35.24 34.96 34.14 35.29 31.99 31.43 30.14 27.75 29.10 28.58 27.42 28.73 30.04
41.56 40.82 40.60 40.14 38.29 36.76 35.72 35.22 34.49 34.30 34.10 33.19 32.82 32.34 31.49 30.22 28.01 27.20 26.79 26.79 27.44 28.47
41.17 40.60 39.88 38.75 37.30 35.78 35.26 34.21 33.54 33.59 33.04 31.78 32.18 33.12 32.63 30.47 26.73 26.04 25.91 26.32 26.18 26.18
40.37 39.66 39.02 37.31 35.66 34.86 34.18 33.28 33.13 33.42 31.84 30.19 29.89 32.55 32.30 30.19 26.14 26.19 25.23 25.96 26.56 27.11
39.74 39.23 37.63 36.84 35.27 34.57 33.96 33.93 32.69 31.50 30.78 31.96 29.03 32.29 31.37 28.95 25.45 23.21 24.41 25.77 26.61 28.09
38.17 38.22 37.52 36.29 35.00 33.67 32.87 31.67 30.57 29.87 29.77 29.83 30.57 29.19 29.72 28.48 25.55 24.17 23.73 23.75 24.01 26.24

GFSNIL_sfc_wetblb_015.txt.gz
Wetbulb
46.08 45.72 43.72 42.75 42.25 41.59 41.36 41.25 41.33 41.48 41.74 41.90 41.51 40.98 40.51 41.42 39.67 40.33 39.45 38.80 38.19 38.61
45.49 44.40 42.91 42.33 41.29 41.25 40.65 42.05 40.77 40.93 41.07 40.89 40.74 40.73 40.01 38.47 38.76 39.10 38.60 38.58 39.75 39.12
44.98 44.29 42.62 41.41 40.20 39.84 39.83 40.15 40.28 40.21 39.80 39.15 39.40 39.76 39.26 37.88 37.95 37.84 37.73 38.87 38.28 38.14
42.60 42.16 41.49 40.62 39.75 39.36 39.29 39.16 39.64 39.32 38.60 37.51 37.37 37.06 36.93 36.65 37.35 37.23 36.06 35.59 34.51 34.21
42.11 40.52 39.56 39.33 38.93 38.51 38.39 38.95 38.54 36.97 35.39 35.30 34.46 33.96 32.91 32.35 32.64 31.74 30.84 30.88 30.56 31.00
41.32 40.92 38.30 38.07 38.39 38.77 37.87 36.38 35.23 34.86 34.38 34.30 34.27 33.42 32.68 32.08 31.46 30.78 30.27 29.89 29.28 29.20
41.48 41.35 39.92 38.03 37.43 38.53 37.37 35.09 34.13 34.41 34.53 34.41 33.83 33.04 31.83 31.04 29.23 28.42 29.14 29.52 29.04 28.76
41.78 40.61 39.49 40.69 39.68 39.22 36.96 35.13 34.91 33.84 33.57 33.29 32.98 31.72 29.14 28.72 27.18 26.55 26.84 27.46 28.05 28.29
40.65 40.40 40.45 39.92 40.16 38.14 34.38 34.18 33.49 32.29 32.45 31.07 32.51 31.97 31.25 29.35 26.03 26.61 25.97 24.70 25.17 26.25
41.16 40.00 39.51 40.64 39.69 35.80 31.96 32.10 32.58 31.05 30.93 30.19 29.63 32.91 32.75 31.04 27.30 25.56 24.43 23.79 24.44 25.12
39.37 38.53 38.98 38.75 37.46 33.14 32.49 32.01 29.87 29.32 29.45 29.01 30.59 32.88 33.20 31.90 26.98 25.04 25.22 24.90 25.00 24.38
37.81 37.53 37.45 37.53 33.85 33.31 32.66 29.50 29.35 29.83 29.14 28.36 28.07 31.79 31.08 28.95 25.26 25.43 24.87 25.78 25.65 25.40
37.11 36.62 36.25 35.12 34.79 32.22 30.81 30.28 29.62 29.27 28.73 29.94 26.91 30.42 29.64 28.83 25.82 22.44 23.28 23.99 24.72 25.97
36.93 36.64 36.26 35.94 33.34 30.59 27.97 28.46 26.24 25.65 26.44 27.10 26.86 25.31 28.13 27.25 23.53 22.49 22.55 22.02 22.49 24.36

GFSNIL_sfc_wetblb_018.txt.gz
Wetbulb
44.41 44.95 44.72 43.95 42.46 41.85 39.57 39.46 39.43 40.13 40.53 40.55 40.25 39.83 39.17 38.37 38.19 38.87 37.22 36.68 37.07 37.56
44.72 45.30 44.35 42.08 40.60 39.63 39.30 40.52 39.46 39.43 39.04 39.21 38.60 38.83 38.45 36.92 36.43 36.04 35.94 36.57 37.23 37.17
43.38 43.44 41.17 40.10 39.06 38.75 38.58 39.10 38.39 37.82 37.47 36.86 36.11 36.25 35.82 35.01 35.28 35.06 34.32 34.09 32.46 31.52
41.09 41.30 40.44 39.21 38.76 38.20 38.30 38.72 39.43 38.16 35.93 34.73 33.77 33.43 32.07 31.89 32.33 30.97 30.09 30.04 29.78 29.73
40.48 39.53 39.35 38.90 38.73 38.68 39.37 39.72 38.78 37.57 35.52 34.58 33.40 32.36 31.20 30.88 30.69 29.77 28.77 28.71 28.23 28.10
40.31 38.98 38.21 38.18 37.95 38.72 37.75 37.50 37.01 34.02 34.98 34.09 33.41 32.05 31.07 29.97 29.10 28.09 27.76 27.62 27.23 27.11
39.51 39.74 38.56 36.86 39.24 39.65 38.13 38.45 37.12 35.30 34.70 33.89 32.75 31.42 30.06 29.30 27.35 27.00 27.34 27.96 27.39 26.46
39.15 39.07 38.65 38.92 38.18 38.97 38.91 38.42 35.01 34.19 32.61 32.02 31.02 30.72 28.31 28.12 27.38 26.33 26.04 26.47 26.54 26.13
39.71 39.24 38.73 38.55 38.25 37.89 38.11 34.75 33.70 32.57 31.97 30.18 31.39 32.29 32.06 30.87 26.40 26.66 25.89 24.52 25.22 25.00
38.64 38.32 37.84 38.30 38.59 37.74 35.26 33.04 31.27 30.97 30.82 28.49 29.27 32.73 33.63 32.32 28.34 26.42 25.02 24.10 24.17 24.89
36.94 36.43 36.87 36.72 36.33 35.72 32.22 32.58 30.32 29.69 28.38 27.99 29.01 32.16 31.11 30.25 26.25 24.87 25.03 24.93 24.37 23.91
36.50 35.89 35.96 34.35 33.60 34.10 32.05 28.94 28.92 28.65 27.92 26.93 26.51 29.76 29.15 27.41 23.06 23.77 22.97 24.07 24.12 23.96
36.20 35.75 34.90 33.59 32.92 31.75 28.66 29.65 28.92 28.05 26.77 27.61 24.07 27.16 27.64 26.18 21.87 18.31 21.52 22.59 23.34 24.61
34.14 33.77 34.32 33.95 32.25 27.96 28.61 27.37 24.73 24.04 24.54 24.74 24.81 23.19 25.78 25.61 22.57 21.40 21.80 21.12 21.68 23.21

GFSNIL_sfc_wetblb_024.txt.gz
Wetbulb
42.80 41.66 41.42 41.29 40.48 39.67 38.78 38.01 37.48 37.99 38.84 38.90 39.05 38.49 38.02 37.69 36.73 35.62 34.57 33.44 33.18 32.63
41.57 41.63 41.11 40.51 39.45 38.40 38.26 38.81 37.68 38.47 39.79 40.11 38.95 37.77 36.63 35.90 34.23 33.81 32.74 32.52 31.55 29.12
39.92 39.90 39.35 39.15 38.40 37.99 37.78 37.56 40.04 39.32 38.14 37.41 36.22 35.64 33.96 33.36 32.39 32.52 31.51 30.78 28.97 28.30
38.34 38.52 38.21 37.72 37.63 37.37 37.88 38.53 37.86 37.38 36.64 35.68 35.19 34.28 32.50 32.06 31.32 30.42 29.26 28.68 27.99 27.97
37.46 38.01 37.04 36.35 36.69 36.72 36.54 36.61 36.23 35.18 36.83 37.54 35.54 32.19 32.18 30.17 31.03 29.29 27.93 27.46 27.38 27.08
37.03 36.93 36.00 35.99 36.26 36.26 35.31 34.79 35.35 38.39 37.70 34.12 32.88 31.66 30.26 29.86 29.15 27.88 27.26 27.11 26.78 26.62
35.90 35.82 35.61 35.70 35.73 35.41 35.23 35.62 37.58 37.90 36.47 32.98 31.65 31.26 29.85 28.84 27.82 27.31 27.49 27.59 27.23 26.91
36.48 36.73 36.47 35.99 35.76 35.94 35.98 36.88 35.88 33.73 32.69 31.27 30.80 30.34 28.61 28.75 28.47 27.61 26.90 27.40 27.51 27.34
36.28 35.85 35.32 34.83 34.91 35.16 35.04 35.75 35.91 32.52 29.87 28.10 30.19 32.95 33.11 30.34 27.91 27.03 25.86 24.37 24.42 24.78
35.37 34.73 34.23 34.29 33.98 33.59 34.75 35.26 30.33 27.98 27.70 26.81 28.68 31.17 29.96 29.78 26.50 23.94 23.17 22.60 22.20 22.53
34.15 33.45 33.68 33.03 33.04 31.92 30.24 29.93 27.27 27.10 27.07 26.60 27.06 28.62 28.16 27.71 24.28 22.93 22.91 22.60 22.32 22.24
33.07 32.09 31.79 31.35 31.80 31.07 30.78 29.31 28.22 27.57 25.95 23.91 23.77 27.13 26.97 25.75 22.43 22.33 21.85 22.81 23.10 23.38
31.96 30.90 29.95 29.43 29.46 30.03 27.90 28.18 27.57 26.51 25.30 26.00 22.86 25.19 26.18 25.53 20.70 16.41 20.88 22.47 22.95 23.82
31.02 29.56 29.34 27.59 27.43 26.86 26.67 26.17 24.35 23.78 24.07 24.01 23.93 22.56 25.48 26.36 21.17 20.89 22.28 21.27 20.58 22.22

GFSNIL_sfc_wetblb_027.txt.gz
Wetbulb
48.94 48.97 48.63 48.28 48.17 47.58 47.04 46.74 46.53 45.38 45.52 45.48 45.35 44.78 44.51 43.91 43.09 42.89 40.68 39.70 38.94 38.68
48.18 47.75 47.36 47.07 46.75 46.01 45.89 45.33 45.54 45.12 44.56 44.83 44.70 43.96 43.55 42.27 41.16 40.66 40.09 39.52 39.26 37.92
46.31 45.63 45.41 45.61 45.29 45.48 45.64 45.62 45.34 45.43 44.73 43.44 42.49 41.58 40.95 39.73 39.80 38.70 39.13 38.28 37.39 36.69
44.45 44.58 44.99 44.86 44.74 44.60 44.73 44.53 43.99 43.43 42.87 41.77 39.29 40.53 41.22 39.28 38.29 37.06 37.36 37.05 35.52 34.71
43.90 44.31 43.43 42.97 42.94 43.40 42.40 42.54 41.92 41.85 41.09 41.35 41.61 40.83 39.88 37.53 37.38 36.07 35.35 34.65 34.10 33.72
43.04 42.40 41.67 41.91 42.14 41.99 41.50 41.80 41.99 40.93 41.22 40.30 39.51 37.50 37.06 36.01 34.88 34.01 33.80 33.94 33.34 32.80
42.06 41.70 41.68 41.67 41.12 40.78 41.20 41.32 41.65 41.04 39.08 38.36 36.66 36.12 35.03 33.95 34.18 34.24 33.67 33.01 32.14 31.12
41.84 41.85 41.11 40.53 40.32 40.55 40.69 40.83 39.05 36.08 35.47 35.67 35.41 34.53 35.09 34.63 33.43 32.50 31.04 30.40 29.32 29.09
41.17 40.41 40.09 39.81 39.68 39.56 39.48 39.44 38.79 35.77 35.06 33.85 34.16 32.63 31.27 31.48 31.53 30.01 28.43 27.36 27.56 27.51
39.33 38.89 38.68 38.53 38.04 37.73 38.39 37.92 36.72 34.83 33.83 33.18 32.97 29.93 29.49 28.82 30.18 28.10 27.39 26.55 26.23 26.00
38.38 37.54 37.76 37.21 36.62 36.83 37.75 36.84 36.26 33.80 32.70 32.37 30.21 28.35 27.78 27.33 28.46 27.61 26.79 26.50 26.34 26.00
37.63 36.48 36.37 35.52 35.54 36.06 36.46 36.74 34.56 33.16 31.42 29.97 29.45 26.83 26.87 27.42 27.90 26.72 26.15 26.55 26.76 25.96
36.95 36.02 35.08 35.09 34.65 34.54 35.69 34.44 33.45 31.22 30.52 27.56 28.47 25.44 26.24 27.22 28.14 26.13 25.76 26.03 25.81 24.29
36.27 35.21 35.08 34.72 33.98 33.32 33.56 32.58 31.08 29.65 29.77 28.70 27.74 27.50 25.61 26.17 27.43 26.14 25.01 24.15 23.69 24.33

GFSNIL_sfc_wetblb_030.txt.gz
Wetbulb
51.39 53.49 52.35 51.30 50.99 49.34 48.26 48.58 49.91 50.08 49.48 48.99 48.88 48.21 47.41 46.37 45.43 45.25 43.13 41.19 41.27 40.62
53.19 51.68 50.12 48.03 48.29 48.04 48.16 46.94 47.01 47.61 47.21 47.27 47.14 47.05 46.58 45.13 44.56 43.36 42.21 41.23 40.96 39.27
49.69 48.64 48.46 48.13 46.32 46.06 46.27 46.07 45.68 45.42 45.29 45.82 46.09 46.03 45.12 43.72 43.86 41.87 42.13 41.22 39.81 39.38
47.33 47.62 47.75 46.45 45.59 45.47 45.58 45.06 44.27 44.37 44.35 44.33 44.52 44.79 43.90 43.62 42.56 40.91 39.82 39.81 38.68 38.74
46.76 46.67 45.75 45.02 44.69 45.41 44.53 44.49 43.90 44.17 43.79 43.48 42.85 43.34 42.21 40.70 39.86 38.88 38.38 38.71 38.47 37.74
45.59 45.00 44.40 44.36 44.77 44.53 43.75 43.37 43.99 43.68 42.33 41.21 41.65 42.09 40.66 39.36 38.62 38.58 38.30 38.10 37.47 36.57
44.84 44.64 44.71 44.45 44.18 43.64 43.23 42.81 42.87 42.45 41.06 40.48 40.32 39.57 39.05 38.65 38.03 38.39 37.83 37.28 36.18 34.64
44.54 45.05 44.41 43.92 43.34 42.92 42.60 42.54 42.53 41.17 40.64 39.92 39.38 38.55 38.70 38.32 37.72 36.81 35.80 35.07 33.94 33.48
43.66 43.64 43.22 42.81 41.91 41.67 41.54 41.84 41.56 40.24 39.08 38.74 38.08 31.27 30.57 31.31 35.54 35.27 33.64 32.40 32.56 32.67
42.77 41.93 41.53 41.12 40.79 40.48 40.44 41.19 40.14 39.36 39.39 38.22 37.81 29.77 28.97 28.61 33.77 33.13 32.53 31.84 31.43 30.80
41.38 40.57 40.62 40.38 39.96 40.22 40.26 39.93 39.46 38.92 38.61 37.89 35.65 28.44 27.76 27.87 33.08 32.78 32.10 31.48 31.17 30.81
40.83 39.89 39.74 39.35 39.35 39.73 38.97 39.19 38.38 38.85 37.99 36.88 35.26 28.01 27.03 27.99 32.10 31.72 31.09 31.08 31.19 29.48
40.52 39.77 39.27 39.36 38.59 38.96 38.56 37.88 38.18 37.57 37.35 32.53 34.18 27.57 26.49 27.85 31.63 30.18 30.02 30.69 30.15 27.27
40.15 39.44 39.41 39.14 39.33 38.58 38.00 37.13 36.53 34.73 35.18 34.84 33.38 32.66 26.51 26.23 29.58 29.82 28.61 28.54 28.80 28.73

GFSNIL_sfc_wetblb_033.txt.gz
Wetbulb
52.53 51.62 51.24 51.77 50.71 48.92 48.37 48.78 49.42 48.38 48.21 48.05 47.95 47.75 48.07 47.18 46.85 46.53 45.31 44.39 42.90 41.89
52.06 50.64 49.76 49.49 49.53 48.64 48.52 47.17 47.11 47.11 46.34 46.25 45.96 46.27 46.58 46.06 45.49 45.49 44.90 43.75 43.09 41.93
51.10 50.13 49.22 48.59 47.52 47.11 47.04 46.79 46.34 45.68 45.35 45.35 45.44 45.44 45.25 44.79 45.05 44.00 44.02 43.10 41.81 41.22
48.61 48.80 48.49 47.54 47.18 46.22 46.39 45.97 44.84 44.60 44.64 44.53 44.25 44.55 44.19 43.81 43.60 42.33 41.37 41.54 40.76 39.54
48.66 47.87 47.30 46.62 45.95 46.23 45.50 45.52 44.43 44.33 44.10 43.98 43.83 43.39 42.75 42.04 40.78 40.36 39.31 39.01 38.67 37.83
47.29 47.06 46.85 46.02 45.98 45.88 45.20 44.31 44.13 43.98 43.44 42.71 42.16 41.07 40.98 40.42 39.40 39.25 38.77 38.63 37.95 37.23
46.43 46.76 46.18 45.97 45.69 45.17 44.60 43.42 43.47 43.55 43.24 42.20 41.36 40.33 39.78 39.36 39.08 38.65 38.41 38.11 37.27 36.05
46.25 46.08 45.68 45.26 45.07 44.48 43.62 43.31 43.35 42.73 42.13 41.01 40.19 39.43 38.69 38.90 38.26 36.99 36.54 36.77 36.02 35.48
44.92 44.33 44.53 44.31 43.83 43.07 42.61 42.63 42.47 42.00 41.07 40.33 39.28 31.71 31.44 31.37 35.60 35.69 35.10 34.26 34.47 34.54
43.59 43.49 43.09 42.86 42.32 41.71 41.76 42.10 41.53 41.28 40.39 39.76 39.53 31.56 30.09 29.18 33.47 34.35 34.59 34.09 33.26 32.76
42.90 41.84 42.20 41.64 41.20 41.31 41.54 41.13 40.37 40.17 39.94 39.41 37.32 30.97 29.43 28.66 32.42 34.57 34.43 33.86 33.21 32.29
41.77 41.03 41.08 40.31 40.52 41.13 40.57 40.11 39.71 39.87 39.62 38.39 36.36 30.51 29.60 28.28 32.73 33.11 32.93 33.23 32.94 31.86
41.42 40.72 40.19 40.46 40.29 40.74 40.02 39.23 39.17 38.47 38.96 34.62 36.99 30.16 29.52 28.56 32.13 31.33 31.21 32.37 32.02 29.15
40.93 40.52 40.56 40.41 40.07 39.48 39.05 38.84 38.14 36.89 37.31 37.01 35.93 34.79 29.54 28.29 29.69 30.74 30.06 29.41 29.91 30.94

GFSNIL_sfc_wetblb_036.txt.gz
Wetbulb
53.06 51.03 49.80 50.18 48.87 47.41 46.01 46.07 46.57 45.14 45.01 44.69 44.54 43.66 43.58 43.21 43.13 43.68 41.38 40.23 40.32 39.84
51.09 49.98 48.40 49.05 48.19 47.12 46.17 45.80 45.05 44.25 43.68 43.48 43.25 43.02 42.43 41.38 41.48 41.98 40.45 39.88 40.24 39.56
50.61 49.39 49.35 47.53 46.99 45.41 44.73 44.52 43.98 43.43 42.72 42.59 42.57 42.53 41.73 41.00 40.85 40.33 39.96 40.28 38.33 37.78
49.40 48.23 47.46 47.12 45.98 44.73 44.26 43.98 43.42 42.67 42.15 41.94 41.67 41.75 40.12 39.92 40.29 38.95 38.33 37.98 37.43 36.55
48.23 47.79 46.91 46.65 46.02 44.73 43.47 43.85 42.69 42.33 41.92 42.20 41.46 40.20 38.94 38.62 39.39 37.53 36.44 36.09 35.50 35.13
47.35 46.82 45.79 46.07 44.84 44.28 43.66 42.69 42.12 42.04 41.53 41.22 40.06 38.98 38.89 38.19 37.56 36.95 36.14 35.49 35.09 34.35
45.61 46.00 45.62 45.16 44.02 43.69 43.44 42.27 41.69 41.84 42.01 41.67 40.17 39.34 38.94 38.52 37.02 35.73 35.28 35.36 34.41 32.58
45.89 46.03 45.19 44.14 43.71 43.31 42.80 41.98 42.03 41.54 41.13 39.98 38.93 38.88 36.83 35.91 33.74 32.96 32.13 32.62 33.32 32.05
45.38 44.36 43.98 43.18 42.98 42.36 41.97 41.55 41.29 40.19 40.22 38.45 38.88 33.40 32.75 32.27 30.42 31.87 31.34 29.72 30.24 30.71
43.91 43.15 42.67 42.32 41.79 40.98 40.35 40.11 39.57 39.44 39.05 37.65 36.37 33.39 31.91 30.03 29.63 29.22 29.60 29.35 29.21 29.81
42.92 42.21 41.27 41.14 40.53 40.14 40.06 39.29 38.31 37.59 38.02 37.85 37.50 33.24 31.96 30.23 27.64 28.43 29.61 29.82 29.26 28.04
41.55 40.32 40.33 39.96 39.33 39.39 38.89 38.33 37.65 37.55 37.14 36.99 33.18 32.56 31.43 28.91 27.65 28.58 28.71 30.25 29.87 29.24
40.62 39.79 39.03 39.27 38.89 38.78 38.53 38.15 37.68 36.76 36.40 34.55 33.42 31.95 31.00 28.92 27.61 27.03 27.58 28.22 28.30 28.03
39.77 39.47 39.50 39.14 38.54 37.12 36.67 36.16 34.72 33.51 33.71 34.14 33.83 30.73 31.35 30.32 27.21 26.84 26.96 26.46 25.80 26.60

GFSNIL_sfc_wetblb_039.txt.gz
Wetbulb
47.63 45.84 46.02 45.09 43.78 43.37 44.47 44.51 43.43 42.66 41.95 40.77 40.54 40.29 40.22 38.91 38.74 39.11 38.76 38.98 40.48 39.21
46.23 45.60 44.91 44.35 44.02 44.94 43.81 44.45 42.43 41.63 41.76 40.69 40.11 40.60 39.45 38.31 38.06 38.54 38.00 37.76 39.04 39.08
45.51 45.31 45.44 45.56 44.65 44.39 43.57 43.30 41.95 41.66 39.85 39.56 39.93 39.51 38.88 37.67 37.96 37.98 37.42 37.23 35.77 35.63
44.96 46.56 45.41 45.24 44.56 43.69 43.27 43.12 41.03 41.50 39.63 39.41 39.34 39.04 37.34 37.41 38.01 36.75 35.18 34.91 34.87 34.99
44.92 46.31 45.58 45.25 44.26 43.53 42.51 42.63 41.71 40.16 39.69 40.23 39.37 37.71 37.14 36.85 36.13 34.94 34.16 34.02 33.54 33.38
46.16 45.47 44.29 44.01 44.71 42.98 42.16 40.43 40.22 39.83 39.30 39.24 38.73 37.52 37.18 36.00 35.74 35.50 34.56 34.11 33.56 32.56
44.53 44.18 44.20 43.35 43.11 41.15 41.00 39.85 40.25 39.69 39.93 39.61 38.84 38.54 37.94 37.01 34.43 33.08 32.08 31.95 30.96 30.86
44.39 44.13 43.75 43.45 42.26 41.96 41.08 40.57 40.01 39.62 39.39 38.84 37.91 37.86 36.42 35.09 32.49 31.20 31.34 31.10 31.40 30.17
44.60 44.70 41.51 41.24 41.34 40.77 40.04 39.66 39.16 39.10 38.95 38.02 37.43 35.04 35.06 32.83 29.83 30.61 29.55 27.78 28.71 28.76
42.62 40.85 41.40 40.90 39.60 39.04 38.37 38.67 38.09 37.84 38.24 37.37 34.91 34.66 34.17 32.89 29.29 28.82 28.07 27.50 27.28 28.07
41.38 40.26 39.45 38.89 38.66 38.69 38.35 37.50 37.16 36.56 36.65 36.41 35.46 34.29 33.83 31.55 27.27 27.07 27.72 27.48 27.29 26.38
39.64 38.52 38.48 38.35 37.77 37.55 37.73 36.71 36.34 36.62 35.73 34.88 33.61 34.04 32.94 29.74 27.46 27.65 27.54 28.58 28.15 27.84
39.16 38.33 38.06 37.85 37.53 37.50 36.53 36.52 36.12 35.39 34.80 34.19 31.75 33.52 32.86 30.40 25.99 26.41 26.75 27.00 26.76 28.36
39.02 38.17 38.27 37.43 36.50 35.48 34.62 33.74 32.40 31.89 32.11 32.83 31.46 30.46 33.02 31.95 27.17 26.76 26.17 26.00 25.01 24.80

GFSNIL_sfc_wetblb_042.txt.gz
Wetbulb
50.64 48.30 46.62 46.66 45.63 45.16 44.42 43.60 43.25 42.66 42.64 41.11 40.99 39.76 38.15 38.87 38.12 37.31 37.03 36.28 36.74 37.24
47.88 46.74 45.65 45.32 46.20 44.91 43.93 43.37 42.93 42.22 41.46 41.30 40.62 39.90 39.28 38.10 36.55 36.52 36.47 36.51 36.13 36.29
47.15 46.91 46.89 47.23 45.60 44.19 43.39 43.25 42.65 41.45 40.84 40.61 39.77 38.85 37.34 36.31 36.88 35.86 35.00 34.97 34.03 34.27
47.01 46.52 46.88 46.53 44.87 44.23 42.78 42.93 42.41 41.68 39.53 39.45 37.83 38.38 36.84 36.25 36.93 35.46 34.60 34.10 34.18 34.18
46.12 45.92 45.61 44.73 43.72 43.85 43.06 43.26 41.33 39.59 39.07 39.06 38.96 37.29 36.28 35.47 35.40 34.60 33.74 33.70 33.13 33.09
45.30 45.05 44.51 44.20 43.30 41.63 41.05 40.52 39.43 39.08 38.84 38.91 38.25 36.91 36.63 35.99 35.54 34.85 34.14 33.05 31.02 31.36
44.85 44.21 43.67 42.66 40.84 40.70 40.27 38.41 38.64 38.84 38.74 38.91 38.06 37.68 37.71 36.59 35.33 34.21 32.51 31.97 31.00 30.60
44.74 42.91 42.90 41.55 40.51 40.56 39.42 39.63 38.61 38.12 39.08 38.95 38.40 37.95 37.16 36.01 33.23 31.57 31.13 30.94 30.65 30.24
44.50 42.30 41.58 40.38 40.90 40.36 39.91 39.45 38.36 38.70 38.70 37.94 37.78 36.60 36.88 34.82 31.45 31.63 29.81 28.49 28.35 28.43
41.16 39.97 39.53 39.98 39.21 38.31 37.49 37.94 37.62 37.27 37.16 37.07 37.11 35.82 36.32 34.79 30.47 29.50 28.81 27.56 27.88 28.08
38.64 38.68 38.80 38.73 38.32 38.33 37.99 37.17 36.47 36.46 36.62 35.88 36.08 35.43 35.56 33.70 28.64 27.68 27.98 28.40 28.23 26.54
38.46 38.31 38.94 38.97 38.81 38.12 36.81 35.56 34.80 35.50 35.02 34.17 33.79 35.37 34.50 31.86 27.72 27.20 27.23 29.02 28.91 27.32
39.93 39.63 38.68 37.13 35.93 35.46 34.36 34.57 34.25 33.92 33.99 34.47 32.52 34.33 34.64 31.93 27.93 27.14 26.87 26.89 27.46 29.73
38.20 37.08 36.55 35.24 34.13 33.38 32.86 32.07 30.49 30.57 30.56 31.00 31.27 30.53 34.61 33.91 27.29 27.14 26.75 26.57 25.90 25.55

GFSNIL_sfc_wetblb_045.txt.gz
Wetbulb
51.97 51.44 50.95 50.03 48.81 45.42 44.06 42.61 42.13 42.64 42.46 42.21 41.74 40.80 40.18 39.61 38.56 38.11 36.61 35.97 36.34 36.25
50.79 48.73 46.88 46.87 47.21 45.78 43.73 43.28 42.99 42.52 41.32 41.43 40.93 41.29 40.35 37.77 36.95 35.75 35.30 35.18 35.52 35.83
49.06 47.60 47.22 46.98 45.46 44.00 43.70 43.46 42.28 41.56 41.42 41.49 41.30 39.92 38.17 35.64 35.74 34.92 35.08 34.38 34.27 34.37
46.93 46.83 46.82 45.83 44.90 44.09 43.42 42.05 42.63 42.80 41.92 40.57 38.70 37.96 36.47 35.82 36.65 36.10 34.90 34.50 34.33 33.93
46.33 46.45 45.12 44.21 43.30 42.56 42.03 43.96 43.02 42.01 39.92 39.24 38.40 37.23 36.69 36.26 36.30 34.42 32.99 33.32 32.42 32.68
46.22 45.42 44.67 43.74 43.33 43.09 42.05 39.73 38.65 38.11 39.03 38.83 37.80 37.59 36.07 35.41 34.59 34.02 33.65 33.42 32.52 31.79
44.10 44.51 44.79 43.06 42.08 40.99 40.57 38.86 39.02 39.50 39.38 39.26 38.67 37.24 36.25 35.30 33.97 34.01 33.57 32.36 30.90 30.26
43.18 43.34 42.66 41.52 39.44 39.92 40.16 39.47 39.46 39.19 38.97 38.78 38.12 37.83 36.70 35.79 33.86 32.74 31.09 31.10 31.04 29.69
43.76 42.10 40.46 40.41 39.73 39.22 38.83 38.88 38.99 38.94 38.51 37.72 37.48 36.60 37.20 35.80 32.30 31.57 30.35 29.13 28.75 30.09
40.53 39.25 39.24 39.63 39.35 39.17 39.42 39.65 38.70 37.64 37.01 35.94 35.34 36.69 37.13 36.55 31.58 29.97 28.44 27.93 27.36 27.55
38.62 37.86 38.69 39.05 39.51 39.38 39.36 36.92 34.65 34.14 33.79 33.53 34.56 35.91 36.27 35.38 30.04 27.95 28.00 27.96 28.70 26.45
39.58 39.45 40.07 39.61 39.62 38.55 36.15 34.11 32.58 33.18 32.76 32.35 32.26 34.90 35.44 33.61 28.08 26.99 27.04 28.19 27.74 28.40
40.19 40.46 39.55 38.25 36.22 34.21 33.26 33.05 32.53 31.87 31.64 32.49 31.07 33.57 35.09 34.04 27.55 26.90 27.52 26.74 27.80 31.47
38.76 37.38 36.27 34.03 32.83 31.71 30.75 29.97 29.03 29.46 29.50 29.84 30.32 30.53 34.25 35.16 28.80 28.29 28.02 27.31 27.22 27.90

GFSNIL_sfc_wetblb_048.txt.gz
Wetbulb
55.20 53.96 52.31 51.20 49.04 46.10 42.70 42.11 42.70 41.30 43.09 43.44 42.47 40.85 40.67 40.22 38.95 37.86 37.73 35.61 36.19 36.52
53.75 52.75 50.88 50.86 47.06 44.70 43.38 42.53 43.00 44.45 43.63 41.16 41.24 41.91 41.11 39.38 39.18 36.61 35.10 35.37 35.44 35.33
52.12 51.57 50.07 48.95 46.91 45.22 44.11 42.88 43.77 43.40 40.52 41.61 42.39 41.46 40.07 38.28 37.22 35.10 34.81 35.10 34.17 34.53
49.51 49.08 50.02 49.31 47.97 46.43 43.63 44.24 42.77 41.61 41.92 41.61 40.35 39.52 38.26 35.64 36.44 35.92 34.53 34.79 33.86 33.44
49.08 49.62 48.69 47.44 44.98 44.65 43.75 42.71 42.75 43.53 41.85 40.32 39.08 37.99 36.54 37.05 35.96 35.48 34.52 33.39 33.04 32.77
48.09 47.22 44.49 43.80 43.73 42.89 42.83 42.53 41.75 41.07 40.14 39.28 37.96 38.23 38.03 37.06 35.94 34.99 33.99 33.60 32.34 32.01
46.26 45.53 43.93 43.75 42.96 42.50 41.73 40.29 40.04 39.97 39.42 39.42 39.46 38.69 37.19 36.10 34.76 33.93 33.44 33.07 32.18 31.44
45.14 43.61 41.79 40.54 40.85 40.71 40.16 39.08 39.44 39.51 40.51 39.59 38.78 37.95 36.72 35.56 33.60 32.32 32.04 31.89 31.03 29.92
42.76 41.62 40.38 39.03 39.08 39.40 39.14 39.87 41.25 40.46 40.07 39.40 38.54 36.95 37.18 35.63 32.56 32.45 31.14 30.25 29.67 29.40
40.09 39.14 39.39 39.83 39.60 39.59 40.38 40.74 39.99 39.89 38.34 35.75 35.18 36.04 36.91 36.51 33.31 31.86 30.87 30.10 29.07 28.61
39.50 39.23 39.75 40.03 40.45 40.23 40.20 39.53 38.57 35.72 34.27 33.02 33.35 35.31 35.92 35.51 32.83 30.92 29.84 28.86 28.22 27.88
40.21 39.79 40.19 39.83 40.01 40.11 38.90 36.06 33.67 32.72 32.25 31.46 31.55 34.19 34.69 34.06 30.98 29.66 28.68 28.95 28.30 28.87
40.55 40.89 40.38 38.23 37.13 34.69 33.10 32.36 31.95 30.91 30.95 31.74 30.58 33.02 34.40 34.06 29.52 28.24 28.64 27.59 27.78 31.42
38.01 36.42 35.11 33.55 32.41 31.28 30.28 29.49 29.11 29.42 29.31 29.65 30.00 30.58 33.74 34.58 30.20 29.35 28.94 28.30 27.97 28.14

GFSNIL_sfc_wetblb_051.txt.gz
Wetbulb
59.18 58.26 57.58 56.04 54.84 52.40 52.22 51.06 49.40 48.57 45.19 44.36 45.00 46.39 44.21 44.15 42.97 43.47 44.09 44.78 44.39 43.81
59.67 58.39 57.94 56.59 55.07 53.29 50.01 47.68 46.97 46.27 45.28 45.64 44.56 44.22 43.25 42.36 43.27 42.84 43.42 44.37 43.85 42.91
59.24 58.88 58.34 56.05 53.34 50.12 49.16 46.24 46.02 46.67 46.44 43.91 43.79 44.26 42.69 42.23 42.44 42.10 43.85 42.99 42.58 42.39
57.62 56.99 55.90 53.79 51.65 48.99 47.08 45.49 45.76 45.86 44.11 42.37 43.10 42.44 41.66 41.11 41.33 42.29 42.46 42.12 41.78 41.63
55.07 53.51 52.53 51.27 49.63 47.47 46.01 46.50 45.66 43.33 42.75 43.72 42.01 41.37 40.13 41.51 42.45 42.13 41.35 41.56 41.14 40.60
52.02 51.79 50.88 48.50 47.42 47.48 46.54 44.28 43.52 43.50 42.52 42.57 42.70 41.61 42.83 42.96 43.00 42.73 41.52 41.59 41.02 40.43
50.19 49.50 47.83 46.37 45.89 45.24 45.31 45.25 45.19 44.81 42.61 42.68 41.50 42.56 42.90 43.32 42.17 41.70 41.22 41.51 41.20 40.78
47.77 46.24 45.08 44.72 42.74 43.16 42.82 44.42 41.37 42.23 41.58 42.13 41.91 40.97 41.94 42.74 41.96 41.39 41.06 41.12 40.33 40.32
42.85 42.75 41.15 40.91 41.45 42.61 41.11 43.43 42.77 42.02 42.22 41.29 40.91 39.20 38.44 38.50 41.04 40.85 39.90 39.74 40.75 40.13
40.66 39.92 40.66 41.33 41.92 43.28 42.38 42.88 41.70 41.48 41.27 41.51 42.49 37.60 36.84 36.44 39.49 40.08 40.35 39.95 39.54 38.84
41.23 40.53 42.48 42.72 41.53 41.26 41.28 41.36 41.28 41.65 42.27 41.00 39.58 35.69 35.67 35.23 39.00 39.25 39.16 39.25 39.04 38.46
41.78 41.51 41.24 40.56 40.65 41.41 41.84 41.70 40.80 39.58 38.75 38.45 38.62 35.32 34.67 34.67 38.24 37.90 37.90 38.31 38.30 37.55
42.42 40.95 39.45 39.37 39.65 39.80 39.08 37.56 37.40 36.83 37.49 36.13 36.84 35.43 34.39 34.75 37.14 36.15 36.60 37.61 37.09 33.21
36.94 37.03 37.42 37.36 37.06 36.77 36.47 35.86 35.76 34.83 36.20 36.33 36.07 36.70 34.77 34.55 35.51 36.13 35.62 35.78 35.40 36.11

GFSNIL_sfc_wetblb_054.txt.gz
Wetbulb
63.52 63.26 62.70 62.01 61.27 60.59 57.18 53.84 56.01 54.17 54.88 51.02 48.97 47.43 50.23 48.53 45.22 45.63 43.04 46.99 45.85 45.55
62.85 62.32 62.01 61.49 60.81 59.39 55.78 53.52 51.00 51.05 48.62 49.23 49.95 49.41 44.65 45.23 43.09 43.95 45.94 45.98 47.16 46.50
62.39 62.17 61.77 60.77 59.46 56.64 52.55 49.38 48.38 47.10 47.41 49.68 46.79 44.96 46.76 45.69 43.59 43.58 44.35 46.67 46.79 46.27
63.17 62.95 61.05 59.34 58.02 54.41 51.24 48.60 47.70 47.51 48.06 44.75 44.28 44.93 43.42 42.75 42.94 42.12 45.88 47.43 45.72 44.69
60.82 58.99 57.83 55.59 53.72 51.32 48.19 47.98 49.26 47.90 44.77 43.98 44.97 43.49 42.95 41.82 42.84 45.18 45.68 45.43 45.11 44.31
54.96 53.68 52.66 50.84 48.92 48.15 47.19 47.38 47.13 45.04 44.33 44.29 42.91 42.82 42.28 43.21 45.26 46.10 45.67 45.25 44.58 44.24
51.78 51.12 50.25 49.19 47.99 48.26 47.23 46.52 44.73 44.70 44.92 43.66 43.34 43.54 43.53 44.15 44.63 45.53 45.62 44.88 44.46 44.28
49.72 49.24 48.96 49.22 50.08 48.20 46.14 45.67 46.71 44.37 44.05 42.66 42.23 43.13 42.94 42.74 43.17 44.36 44.06 44.34 44.49 44.75
47.19 46.81 46.61 47.41 47.10 44.64 44.63 44.87 43.49 41.74 41.85 42.20 42.61 39.63 39.15 40.72 44.48 43.60 43.46 43.20 43.92 44.24
46.07 44.51 45.64 45.17 45.08 43.86 44.34 43.60 42.71 42.59 42.67 42.23 42.76 40.09 39.26 37.29 41.51 42.05 42.71 42.90 42.75 42.23
45.30 45.71 46.32 45.35 43.90 44.15 43.02 43.24 43.24 43.05 44.86 44.63 44.11 37.41 36.39 35.29 40.60 41.56 41.69 42.01 41.80 41.45
45.92 45.14 44.08 44.95 45.04 44.44 44.73 45.19 44.47 43.25 42.16 41.93 42.08 36.91 35.83 35.57 39.48 39.20 39.75 40.48 41.02 40.84
45.69 43.34 42.45 43.11 42.94 43.05 43.49 41.68 41.50 40.25 40.57 38.61 39.87 37.17 35.90 36.37 38.22 37.85 38.90 39.58 39.62 36.56
40.66 40.95 41.46 41.07 41.09 40.95 40.88 40.35 39.97 38.80 39.50 39.07 38.15 37.68 34.56 34.34 34.77 34.33 34.60 34.77 35.79 38.34

GFSNIL_sfc_wetblb_057.txt.gz
Wetbulb
65.38 65.14 64.73 64.29 63.87 63.24 62.42 60.92 59.97 55.42 54.81 53.91 49.83 47.79 48.91 50.25 51.11 47.62 45.68 43.99 46.34 44.35
64.89 65.98 64.77 64.80 64.01 63.01 62.76 59.95 58.29 55.20 53.09 48.63 49.03 49.88 50.15 47.72 45.08 44.89 44.96 45.40 45.00 44.82
65.15 64.30 63.88 63.26 61.66 61.07 60.53 58.08 54.74 51.80 50.10 48.48 48.87 48.83 47.56 45.78 45.52 43.00 44.23 44.42 43.33 44.69
63.27 63.10 63.02 61.37 60.69 59.99 57.62 53.74 51.55 49.76 48.48 47.21 47.26 45.92 44.93 43.65 42.58 42.49 43.12 42.49 43.65 47.21
62.87 60.80 59.93 59.01 57.12 55.08 52.86 50.71 49.06 49.09 47.93 46.78 44.82 44.67 44.30 42.27 41.99 41.87 41.49 43.67 46.58 45.86
57.17 55.70 54.21 52.01 50.68 49.77 48.61 48.24 48.93 46.58 44.94 44.77 45.48 44.74 43.95 42.65 42.22 42.98 44.76 46.39 45.64 45.30
53.60 52.01 50.99 49.68 48.87 48.19 48.16 47.27 46.30 45.77 45.15 44.25 42.95 43.08 42.44 42.95 43.45 44.70 44.44 45.01 45.24 45.52
50.91 50.76 50.73 50.05 48.60 47.86 47.27 45.76 45.98 45.42 44.81 43.86 43.25 43.19 43.24 43.53 43.07 43.21 43.95 44.19 45.48 46.27
50.62 51.70 51.31 50.62 49.61 48.57 47.28 46.77 45.54 44.12 43.18 42.13 42.77 39.74 39.35 40.38 42.51 43.77 43.99 43.26 43.89 44.59
50.67 49.19 48.99 48.85 48.49 47.45 46.41 46.39 45.56 43.21 44.43 43.77 44.07 40.06 40.01 38.77 43.35 42.00 41.84 42.04 42.67 42.29
48.94 48.31 48.17 47.64 47.32 46.88 47.19 46.59 46.11 45.50 45.38 45.26 45.57 39.64 37.64 35.60 40.50 40.44 40.72 41.03 41.33 42.04
48.19 46.83 47.15 46.22 45.90 46.21 45.19 45.26 45.04 44.85 43.76 42.70 42.76 37.19 35.82 36.25 39.48 39.25 39.20 40.06 40.35 40.52
47.78 47.23 46.17 45.61 45.10 44.80 44.06 42.63 42.89 41.52 41.49 38.05 40.89 34.70 34.43 34.35 35.62 34.04 34.98 35.82 36.12 34.49
45.49 44.92 44.72 43.69 43.18 42.30 41.90 41.71 40.87 39.17 39.11 38.67 37.55 37.01 33.68 33.14 32.90 32.49 31.47 32.03 33.18 34.80

GFSNIL_sfc_wetblb_060.txt.gz
Wetbulb
62.51 62.29 62.15 61.75 61.45 60.95 60.46 59.99 59.71 59.47 56.66 55.02 53.56 51.58 49.71 48.91 49.32 48.04 45.40 42.70 44.52 43.95
62.23 62.31 62.44 62.07 63.00 61.42 60.99 59.36 58.50 56.62 54.00 51.60 50.04 49.80 49.94 49.11 44.93 43.49 43.57 44.58 44.11 43.92
62.38 62.74 62.71 63.05 62.14 60.26 59.15 57.46 56.96 54.64 51.36 49.43 49.49 49.20 46.81 44.46 44.55 43.72 43.81 43.85 43.15 43.20
63.26 63.40 61.66 61.25 60.28 59.66 56.81 55.18 54.38 51.58 49.09 48.55 47.69 46.31 45.11 44.05 42.87 41.93 42.52 42.93 42.77 42.55
61.76 61.34 59.58 58.57 57.63 55.99 53.45 52.40 50.69 49.08 47.87 47.19 45.28 44.87 43.26 42.21 41.98 42.06 41.76 42.07 41.60 42.90
57.21 55.05 53.09 51.48 50.21 49.29 49.12 48.96 48.60 47.72 45.69 45.09 44.68 43.94 43.06 42.66 42.30 42.01 42.08 42.50 43.49 44.89
52.74 51.15 49.84 49.21 48.72 48.67 48.04 46.73 45.54 45.49 44.82 44.83 44.11 43.39 42.94 42.38 42.23 42.81 43.56 43.84 42.99 43.32
50.08 50.52 49.30 48.03 47.86 47.02 46.09 45.58 44.94 44.37 43.97 43.73 43.44 42.61 42.33 43.25 43.09 42.39 42.23 43.17 44.02 43.53
50.63 50.18 49.50 47.70 46.54 45.84 45.53 45.39 45.11 43.12 42.53 42.37 42.81 40.38 40.48 40.98 41.58 42.27 42.35 40.66 39.38 39.87
51.02 49.65 48.89 48.48 47.39 46.45 45.04 44.61 42.92 42.06 42.20 42.89 42.87 39.17 39.62 38.60 40.85 39.26 37.26 36.99 37.29 38.41
48.67 47.68 47.28 46.25 45.54 45.69 45.54 44.57 44.28 43.46 43.21 43.06 43.28 38.77 36.93 35.41 35.84 36.10 36.63 36.83 36.58 35.38
47.66 46.23 46.32 45.64 45.37 45.03 44.43 44.05 44.07 43.98 42.25 38.84 34.92 34.06 33.57 34.74 33.78 33.45 32.24 34.18 33.68 33.30
47.56 46.90 45.23 44.77 44.59 44.62 44.06 41.69 40.62 39.91 39.73 37.19 32.21 33.66 32.94 32.25 29.57 28.60 27.79 28.89 30.12 31.64
46.69 45.66 45.03 43.38 41.88 40.71 39.62 39.89 36.41 34.60 34.51 35.75 34.02 30.94 30.97 30.22 27.00 25.79 25.56 25.94 26.36 27.26

GFSNIL_sfc_wetblb_066.txt.gz
Wetbulb
56.56 56.55 56.27 56.02 56.18 55.97 56.57 57.94 59.65 58.52 57.77 57.29 55.63 54.00 52.24 52.18 51.91 50.34 48.71 48.03 47.32 45.56
56.64 56.68 57.36 57.87 55.85 56.62 57.81 57.25 57.09 57.75 56.99 56.09 54.88 51.35 50.75 50.65 48.90 48.60 47.81 46.24 44.82 44.61
56.74 57.17 57.91 56.55 57.05 57.81 58.29 58.13 57.37 56.87 56.53 54.16 52.11 51.20 50.39 48.80 47.59 46.19 44.99 45.12 44.14 44.22
57.61 58.70 58.32 58.33 58.43 57.93 57.73 58.76 57.85 55.69 53.20 51.37 51.03 49.47 48.39 46.42 45.05 44.53 43.95 44.13 44.02 43.65
58.33 59.05 59.17 59.33 58.44 57.82 57.09 55.13 54.64 53.28 51.60 50.10 48.77 47.47 46.08 44.50 44.44 43.39 43.14 43.08 42.97 43.15
59.11 58.62 58.35 57.59 57.41 56.41 54.29 52.31 50.77 50.62 49.15 47.94 46.55 45.61 44.82 43.87 43.72 43.60 43.26 42.89 42.67 42.41
59.46 59.39 58.18 54.66 52.73 51.57 51.52 49.51 48.75 48.80 47.14 45.76 44.99 44.59 44.09 43.78 43.07 42.67 42.66 42.71 42.93 43.53
52.53 53.00 52.18 50.97 50.19 49.27 48.62 48.01 47.11 45.72 45.07 44.63 44.36 44.05 43.10 42.51 41.95 41.62 42.35 42.83 42.78 41.79
50.12 49.90 49.45 48.69 47.54 46.80 45.93 45.61 45.03 44.23 43.78 43.45 43.29 39.27 39.97 41.22 42.43 42.26 41.55 39.50 35.43 34.70
48.91 47.63 47.13 46.59 46.73 44.80 44.14 44.07 43.01 42.81 42.50 41.48 41.31 39.35 39.84 39.08 40.58 37.39 33.63 30.53 30.08 31.65
47.53 46.95 46.18 45.58 44.20 43.88 42.99 42.14 41.53 40.49 39.94 39.99 40.65 38.44 37.20 35.17 32.03 30.12 29.93 28.74 27.69 26.98
46.80 45.64 44.76 43.82 42.85 42.14 40.87 39.69 39.19 38.87 36.06 34.26 36.06 35.55 33.81 31.19 28.65 27.51 26.41 27.27 27.36 27.12
45.81 44.27 43.71 43.12 41.50 41.03 40.74 40.29 39.47 35.01 33.80 32.48 31.82 33.32 32.31 29.00 25.63 23.75 23.85 25.27 26.22 27.43
44.23 43.52 43.20 42.83 41.66 39.43 36.58 35.41 31.91 29.94 29.81 29.26 29.88 29.76 30.34 28.66 24.70 24.45 24.80 24.08 23.29 23.53

GFSNIL_sfc_wetblb_069.txt.gz
Wetbulb
52.20 52.30 53.58 54.14 54.78 54.04 54.25 55.16 56.75 57.61 58.53 57.41 56.17 55.83 54.22 54.02 52.36 51.56 51.29 48.69 48.78 49.03
52.67 53.09 54.25 55.09 55.88 55.72 55.28 55.55 55.58 56.43 56.77 56.83 56.59 56.57 55.13 53.92 51.27 50.45 49.31 49.20 49.25 45.64
53.38 54.48 55.22 55.90 54.74 55.46 55.93 57.43 57.37 56.87 56.63 56.05 56.09 53.40 52.66 51.28 49.22 48.82 46.94 46.51 45.70 44.94
53.67 54.99 55.90 56.23 56.20 55.98 57.70 57.78 57.67 57.68 56.65 55.79 53.82 53.20 51.17 48.88 47.25 46.45 45.33 45.34 45.19 44.29
54.88 55.40 55.95 56.43 56.91 57.83 58.41 58.39 57.86 57.26 55.63 52.62 51.51 50.43 49.31 46.47 46.47 45.38 44.52 44.05 43.87 43.50
55.52 55.70 56.41 57.75 58.15 58.32 58.10 56.93 55.69 54.95 52.60 50.97 50.23 48.24 46.85 47.03 45.45 44.85 44.28 43.64 43.47 43.47
55.88 56.71 57.53 58.32 58.15 58.15 55.11 53.88 51.89 52.18 51.31 49.33 47.48 46.98 45.78 45.53 44.35 43.77 43.62 43.34 43.10 42.99
56.95 57.76 58.20 57.25 55.65 52.29 51.55 50.79 50.34 48.57 47.19 45.99 45.43 45.06 44.47 44.09 43.16 42.57 42.20 42.64 43.01 40.05
55.07 55.11 54.91 53.10 50.63 50.55 49.35 47.85 46.96 46.42 45.28 44.63 44.43 39.80 40.50 42.01 42.08 42.32 42.27 39.32 35.45 34.53
52.90 51.33 50.09 49.63 48.73 47.63 46.82 46.02 45.14 44.99 43.62 42.58 41.73 39.03 39.77 39.80 42.07 39.17 35.87 33.36 32.58 31.03
50.32 49.22 48.22 47.84 46.44 44.94 44.87 44.02 43.12 42.56 43.08 42.16 41.16 38.52 37.66 35.59 34.09 31.85 30.67 29.87 27.65 26.61
48.67 47.16 45.98 45.33 44.21 43.94 44.15 43.75 42.61 42.50 41.15 39.69 38.82 35.98 34.04 32.39 30.89 27.91 26.38 27.15 26.85 26.50
47.48 46.20 45.07 44.42 42.99 42.93 42.79 41.43 39.41 36.01 36.35 35.83 34.52 34.03 33.00 30.04 26.27 24.10 24.42 25.64 25.81 27.42
46.52 45.49 44.63 43.13 41.90 41.54 40.69 35.79 32.55 29.98 31.16 31.30 31.35 31.41 31.37 29.71 25.39 24.61 24.36 23.96 22.91 23.54

GFSNIL_sfc_wetblb_072.txt.gz
Wetbulb
50.96 50.87 50.95 50.67 51.01 51.61 51.88 51.38 53.22 54.27 55.22 54.94 55.44 54.35 54.09 52.84 53.82 53.79 53.57 51.88 51.59 51.04
51.43 50.64 50.85 51.52 52.12 52.92 52.92 53.36 53.09 53.60 54.60 55.58 55.77 55.47 54.93 55.15 53.62 52.17 51.84 51.54 50.49 50.09
51.75 51.61 51.64 51.98 52.87 53.96 54.43 53.83 54.03 54.43 54.26 54.81 54.91 55.61 55.91 56.53 54.65 53.08 50.32 49.92 49.02 47.56
52.12 52.53 53.13 53.47 54.26 54.63 54.90 54.84 55.62 56.05 56.31 56.39 56.53 55.29 53.74 53.42 50.92 50.65 48.32 47.45 47.32 46.19
52.78 53.16 53.28 53.91 54.30 55.08 55.28 55.93 56.72 56.82 56.59 56.33 55.49 52.49 51.91 49.94 49.35 49.49 47.56 46.62 45.90 44.85
52.91 52.88 53.03 53.00 53.75 55.09 55.74 56.28 56.96 56.99 55.95 55.23 53.26 51.71 51.03 50.39 48.95 48.37 48.66 46.06 45.16 44.18
52.45 53.19 52.86 52.41 53.87 55.58 56.78 56.87 56.21 54.91 53.95 52.46 50.50 49.94 48.66 48.24 47.68 46.17 45.85 45.19 44.58 44.01
52.85 53.19 52.29 53.12 55.44 56.09 56.61 56.82 56.15 53.77 52.33 51.95 49.92 48.80 47.70 46.55 44.85 44.24 43.88 44.39 43.00 41.69
53.68 54.03 54.23 54.79 55.68 57.09 55.97 55.03 52.22 50.11 48.80 46.91 46.15 41.10 42.25 43.71 44.05 43.62 43.10 37.59 35.72 35.44
54.15 54.29 55.18 55.34 53.82 52.58 51.49 49.91 48.30 46.53 46.09 45.50 44.70 40.11 40.44 40.42 43.24 42.12 36.92 33.74 32.07 31.81
54.98 53.96 50.69 49.74 49.54 49.38 48.46 47.74 46.80 45.21 44.79 44.23 41.55 38.72 38.87 37.80 36.37 33.82 32.99 32.61 30.92 30.11
53.13 50.03 48.78 47.56 46.47 45.89 45.84 45.01 43.71 43.42 43.30 41.08 38.57 36.72 35.27 34.22 31.89 29.92 28.75 28.77 28.84 28.27
49.48 48.01 47.32 46.24 44.54 45.00 44.01 42.33 40.77 39.57 40.24 37.69 34.96 34.72 34.13 32.25 29.53 27.01 26.75 27.02 27.41 27.62
48.34 47.25 46.44 44.50 43.30 42.23 39.26 36.43 34.31 33.10 33.85 33.77 33.56 32.96 32.59 31.24 28.75 27.02 25.51 24.37 23.14 25.00

GFSNIL_sfc_wetblb_078.txt.gz
Wetbulb
58.60 58.32 59.42 60.53 60.24 58.60 56.96 57.54 56.99 57.61 58.28 59.92 61.00 61.88 61.89 62.69 62.46 62.60 62.14 61.54 61.46 60.68
60.74 59.93 59.97 60.32 61.21 60.27 60.04 60.01 59.20 61.10 60.84 61.82 61.95 61.59 61.71 61.00 61.28 61.73 61.91 62.07 62.26 61.37
60.15 60.41 60.58 61.25 60.93 61.19 61.23 61.15 61.42 61.38 61.79 61.39 61.02 61.09 60.92 60.91 61.23 60.85 62.24 61.70 59.89 59.79
60.05 60.59 60.79 60.86 60.77 60.74 61.18 60.64 60.18 60.33 60.15 59.78 59.69 60.40 61.05 60.73 60.75 60.28 60.16 59.84 59.23 57.07
60.35 59.63 60.65 61.02 61.38 61.82 61.12 61.22 60.27 60.27 59.76 59.73 59.86 60.31 60.59 59.95 59.11 57.88 57.85 57.37 55.09 55.51
59.69 59.39 59.12 59.19 60.25 60.12 60.00 60.42 60.13 60.30 60.69 60.24 60.52 60.30 60.51 59.42 58.03 57.41 57.97 57.04 54.39 53.10
59.38 59.83 59.46 59.57 59.29 59.59 59.31 58.85 58.95 60.18 60.04 60.27 59.86 59.12 59.23 59.30 59.22 59.33 58.22 56.43 53.23 52.92
59.28 59.64 59.71 59.30 59.39 59.75 59.75 58.93 59.01 58.75 59.62 60.41 59.81 59.33 57.78 57.89 57.93 57.18 55.95 53.72 52.10 51.81
59.73 59.21 58.90 59.32 59.49 59.58 59.63 59.29 59.58 59.32 59.67 59.87 58.54 49.27 46.27 53.17 57.23 55.33 52.89 48.57 46.17 45.74
59.83 59.11 59.21 59.07 58.76 58.24 58.54 59.13 58.66 59.31 59.04 58.95 59.67 45.19 43.74 43.92 56.99 53.69 50.13 45.30 40.35 39.42
59.28 59.04 59.23 58.95 58.47 58.68 58.69 58.46 58.93 58.71 59.09 59.16 58.22 42.65 42.65 41.56 49.96 45.66 43.11 40.42 39.58 35.96
59.16 58.54 58.52 58.29 58.26 58.72 58.48 58.39 58.33 57.68 56.80 54.88 48.27 39.91 38.79 41.39 39.39 36.61 35.38 35.65 35.11 33.69
59.71 58.83 58.44 58.45 58.17 55.97 56.85 54.12 47.74 44.11 44.96 41.87 40.62 38.55 38.94 39.14 35.26 32.16 31.37 31.94 31.58 32.31
59.10 58.06 57.25 55.95 52.57 48.91 44.08 40.96 37.83 36.02 36.89 36.96 36.90 36.40 36.76 36.06 33.69 31.46 29.94 29.01 28.76 30.32

GFSNIL_sfc_wetblb_081.txt.gz
Wetbulb
60.55 59.97 59.49 57.40 56.00 55.95 55.15 54.87 55.57 55.90 56.18 57.40 58.19 59.39 62.40 61.57 61.66 63.22 61.88 61.83 60.84 59.85
61.01 60.47 59.88 59.93 59.84 58.18 57.68 56.94 57.51 57.05 57.37 57.87 59.51 59.30 61.65 61.04 60.46 61.83 59.93 61.08 62.26 61.33
60.44 60.89 61.51 61.45 60.96 60.84 61.34 61.17 60.34 60.34 58.96 58.59 58.26 60.38 60.64 60.68 61.37 61.12 61.32 61.92 61.48 61.59
61.60 61.39 61.55 62.48 62.46 62.19 62.36 61.51 60.49 60.51 59.97 59.82 60.30 61.00 60.73 60.92 61.33 60.85 60.89 61.17 60.94 60.59
62.99 62.48 61.84 61.96 62.78 63.18 62.19 61.79 60.83 61.10 60.62 60.73 60.89 61.41 60.79 60.57 60.47 60.31 60.18 60.55 60.36 60.11
62.52 62.14 62.15 62.24 62.52 62.30 62.06 61.65 61.67 61.11 60.61 60.56 60.93 61.36 61.55 61.23 60.68 60.74 60.79 61.11 60.36 58.52
62.25 62.04 62.14 62.73 62.51 62.31 61.66 61.58 61.46 61.11 61.02 61.06 61.13 61.01 61.00 60.67 60.38 60.39 60.24 60.86 59.97 57.57
62.78 62.28 61.51 61.72 62.09 62.43 62.37 61.96 61.81 61.66 61.47 61.61 61.04 60.64 60.93 60.81 60.35 60.05 59.59 59.31 58.44 57.17
62.02 61.74 61.35 61.98 61.71 61.48 61.38 61.53 61.43 60.87 60.76 60.70 60.06 50.83 46.87 53.47 60.47 59.26 59.14 56.54 55.60 53.80
62.12 61.36 61.39 61.40 61.03 60.94 60.89 61.15 60.41 60.45 60.30 60.21 60.75 47.29 45.36 44.53 56.83 57.15 58.13 55.36 55.01 48.59
62.35 61.89 61.94 61.36 60.62 60.70 61.16 60.83 60.71 60.55 60.78 60.87 60.55 45.86 44.99 42.92 54.19 55.36 55.92 54.16 49.84 45.25
62.22 61.75 61.89 61.37 61.07 61.32 60.73 60.24 59.81 60.29 59.81 59.86 59.96 41.29 42.02 44.36 49.57 42.49 38.97 38.61 38.42 38.29
62.17 61.82 61.20 61.36 61.46 61.64 60.53 59.35 58.09 55.95 51.31 43.55 51.58 41.29 40.21 42.30 39.27 34.58 33.08 33.69 33.89 33.66
61.58 60.49 61.06 61.14 61.51 60.43 55.73 47.94 42.63 39.02 37.40 37.07 38.87 38.91 38.13 37.89 36.63 32.93 30.88 30.65 30.58 31.36

GFSNIL_sfc_wetblb_084.txt.gz
Wetbulb
57.20 56.07 55.45 55.05 54.39 53.58 53.63 53.67 55.45 56.50 56.79 56.67 57.55 57.87 58.28 57.49 57.41 57.78 57.62 56.95 57.22 56.71
58.56 57.28 56.51 55.78 55.49 54.74 54.69 54.76 54.72 55.96 56.21 56.24 56.87 57.08 57.13 57.74 56.72 57.41 58.00 56.96 57.14 56.81
59.04 58.68 57.89 57.69 56.05 55.07 55.22 55.22 55.06 55.19 55.35 55.75 56.09 56.41 56.48 56.79 57.64 57.15 57.63 57.95 57.11 57.26
58.91 59.66 59.19 58.61 58.04 56.50 55.64 55.68 55.32 55.01 55.26 55.55 55.41 55.87 55.95 55.97 56.02 56.92 56.44 56.88 56.98 57.03
58.76 58.82 59.04 58.85 59.14 58.46 56.75 56.53 56.28 56.08 55.47 55.67 55.81 56.05 55.37 55.24 55.51 55.40 55.73 56.44 56.81 56.90
59.10 58.95 58.85 59.06 59.78 59.59 58.66 58.14 57.91 57.44 57.08 56.58 56.49 56.03 56.10 55.89 56.18 56.11 56.12 56.43 56.57 56.61
59.64 59.85 59.47 59.48 59.31 60.11 60.36 59.60 59.36 58.87 58.03 57.68 57.65 57.43 56.93 57.29 56.94 56.93 57.03 57.10 57.21 57.00
60.09 60.37 60.67 60.30 59.75 59.75 59.93 60.12 59.88 58.99 58.33 58.24 58.06 58.00 57.50 57.44 57.08 56.83 57.08 57.40 57.00 56.79
60.08 60.31 59.94 59.62 59.62 59.52 59.47 59.44 59.17 58.67 58.49 57.93 58.08 50.70 46.97 52.96 57.01 56.91 56.30 55.93 56.06 56.30
59.87 59.55 59.97 59.71 59.06 59.04 59.07 59.29 58.44 58.03 58.10 57.75 58.18 47.65 46.06 45.13 56.41 56.64 56.31 55.58 55.27 52.69
60.68 59.69 59.71 59.65 58.81 58.32 58.54 58.25 58.27 58.36 58.42 58.01 58.24 46.73 44.72 43.20 52.84 55.33 55.14 52.88 51.89 51.41
60.95 60.23 59.88 58.93 58.60 58.80 58.36 57.93 57.72 57.78 57.36 56.90 56.85 45.24 43.44 43.85 51.73 53.41 44.58 40.35 40.28 41.89
61.14 60.33 59.72 59.68 59.09 58.82 59.01 58.26 58.05 56.60 50.85 43.11 53.18 39.94 39.94 43.22 44.42 36.74 33.78 33.48 33.29 33.93
60.88 60.22 60.15 59.58 59.45 59.00 58.29 52.01 43.90 38.11 37.40 40.08 40.87 39.98 38.95 38.57 37.21 34.42 32.04 31.24 30.91 31.65

GFSNIL_sfc_wetblb_087.txt.gz
Wetbulb
55.46 53.91 53.44 52.21 51.66 52.26 52.91 53.32 53.41 55.34 56.18 55.99 56.28 56.84 57.22 57.34 56.48 57.00 56.30 55.93 55.87 55.76
55.94 54.22 53.80 52.67 52.51 52.56 53.00 53.94 53.69 54.95 56.20 55.91 56.57 56.48 57.04 56.34 55.91 56.35 55.98 56.01 56.09 55.95
56.49 55.35 54.62 53.95 53.36 52.61 52.71 53.91 53.91 54.10 55.59 55.92 56.10 56.22 56.42 56.55 56.15 55.90 55.93 56.40 55.77 55.66
58.05 56.53 55.42 54.72 54.34 53.78 53.37 53.53 53.61 53.51 54.66 55.15 55.16 55.54 55.35 55.33 55.82 55.80 55.61 55.79 55.99 55.51
58.03 58.12 56.91 56.39 55.47 55.36 53.88 53.81 53.54 53.52 53.92 54.71 55.00 55.27 54.87 54.64 54.95 54.81 55.16 55.74 55.78 55.62
56.81 57.65 57.90 57.34 57.42 56.90 55.33 54.07 53.85 53.68 53.23 53.19 53.69 54.00 54.27 54.41 54.09 53.96 54.25 54.56 54.52 55.09
56.04 56.48 57.12 58.52 58.24 58.52 57.61 55.65 54.20 54.05 53.80 53.35 53.13 53.54 54.20 54.28 53.83 53.79 53.87 54.01 54.07 54.93
56.78 57.11 57.13 56.84 57.53 58.27 58.32 57.30 56.00 54.82 54.34 54.16 53.68 53.40 53.60 54.16 54.07 53.87 53.61 54.06 54.67 54.98
58.02 57.82 57.41 57.42 57.46 57.55 57.84 58.53 57.84 56.84 55.79 54.94 55.02 49.20 46.05 51.10 54.41 54.35 54.10 54.07 54.77 55.39
57.81 58.06 58.27 58.50 58.14 57.55 57.09 57.40 57.88 58.01 57.94 57.19 56.85 47.47 45.53 44.61 55.11 55.50 55.33 54.82 54.79 54.62
57.46 57.48 58.08 58.21 57.93 57.81 57.77 57.38 56.95 57.30 57.67 57.29 57.50 46.44 45.03 42.74 52.44 55.16 55.08 54.79 54.37 53.77
58.48 57.74 57.29 57.08 57.61 57.85 57.22 57.09 57.22 57.41 57.53 57.01 57.01 45.59 44.80 44.18 51.96 53.23 53.59 46.10 42.05 49.04
49.60 56.48 58.21 57.46 57.27 57.74 57.39 56.97 57.32 56.91 56.98 53.05 56.83 44.22 43.98 44.67 53.25 50.85 36.70 34.30 34.47 35.55
44.33 46.41 48.60 53.80 57.22 56.42 56.59 56.16 51.98 43.40 37.33 37.45 36.97 38.42 39.29 40.54 43.66 43.28 34.42 32.06 31.49 32.81

GFSNIL_sfc_wetblb_090.txt.gz
Wetbulb
55.01 52.48 51.86 52.39 52.95 53.11 53.39 53.71 53.80 53.45 52.79 53.24 55.27 55.52 55.59 54.95 55.06 54.28 55.46 55.34 54.91 55.12
55.18 53.24 52.58 52.43 53.12 53.48 53.97 53.92 53.70 53.65 53.45 53.38 54.51 56.14 55.95 54.99 53.36 53.81 54.13 54.06 54.68 55.59
55.84 54.67 54.26 53.23 50.54 51.59 52.66 54.05 53.69 53.79 54.99 55.31 54.90 55.39 55.58 55.68 55.28 54.87 54.98 55.77 54.82 55.42
56.20 55.38 54.41 52.62 51.49 51.09 51.64 52.31 52.55 54.06 54.60 55.70 55.57 55.28 55.19 55.45 55.24 54.77 54.85 55.00 54.49 55.13
56.83 56.07 54.61 53.26 52.64 52.52 51.47 52.09 52.66 52.81 53.46 54.14 54.73 55.60 54.76 54.08 54.62 54.26 54.00 53.89 53.81 54.75
57.46 56.57 55.46 54.67 53.76 53.61 52.67 52.18 52.29 52.48 52.07 52.77 53.60 53.82 53.82 54.42 53.88 53.92 54.97 55.14 54.66 54.42
55.73 56.69 56.86 56.37 55.59 54.42 53.96 52.94 52.43 52.55 52.52 52.58 52.76 53.29 53.45 53.59 53.38 53.42 53.54 54.04 54.89 55.13
55.75 56.14 56.75 57.26 56.92 56.63 55.28 54.19 53.81 52.78 52.70 52.74 52.76 52.72 52.84 53.04 52.74 52.60 52.63 53.09 53.17 53.14
55.93 56.06 55.84 55.98 56.80 56.73 56.47 56.31 55.14 53.76 52.93 52.35 52.74 47.53 44.44 49.02 51.95 52.05 51.83 51.56 52.30 52.95
56.88 56.11 56.02 56.34 56.26 56.17 56.68 56.80 56.39 55.27 54.11 53.01 53.40 45.69 44.24 42.91 51.25 51.37 51.59 51.98 52.34 52.06
56.40 57.19 57.32 56.82 56.23 56.13 56.22 56.06 56.17 56.66 56.58 55.68 55.30 45.84 44.36 41.84 49.73 51.33 51.68 52.12 52.46 52.67
49.62 51.47 54.69 56.73 57.00 57.23 56.83 56.57 56.35 56.67 56.86 57.08 57.01 46.05 45.06 44.08 50.94 52.05 52.63 53.69 53.82 53.92
44.40 46.81 47.14 48.76 53.05 57.73 57.90 57.26 57.40 56.82 56.80 53.37 56.73 48.10 44.39 45.52 54.51 52.54 51.98 52.97 41.26 36.83
39.24 41.20 41.53 43.48 44.50 45.30 49.14 56.51 55.82 52.81 39.79 37.09 35.13 37.50 37.54 41.69 50.69 51.95 49.66 43.54 32.47 33.16

GFSNIL_sfc_wetblb_093.txt.gz
Wetbulb
54.92 52.55 52.52 52.47 54.07 53.86 53.91 54.42 54.36 55.05 56.30 55.93 56.28 56.02 55.23 54.84 54.37 54.56 53.67 53.00 53.29 54.01
55.08 53.83 51.76 52.18 54.09 53.30 53.78 54.30 53.60 53.89 53.72 55.27 55.42 55.70 55.51 54.52 53.93 53.93 54.14 53.89 53.36 53.04
53.85 53.47 52.41 51.49 52.16 51.82 52.15 52.90 52.49 52.72 52.52 52.88 54.22 55.11 55.45 55.41 54.59 53.99 54.05 54.50 54.72 54.58
54.03 53.07 52.58 51.80 51.18 51.30 51.88 52.39 52.44 52.87 52.86 52.57 52.54 53.68 54.09 54.30 54.65 53.89 53.52 53.83 53.03 53.89
55.07 54.32 53.17 52.41 51.16 50.58 51.21 51.79 52.21 52.69 52.88 53.19 53.54 53.31 53.17 53.38 54.27 53.44 52.84 52.79 52.88 53.30
54.71 54.36 53.88 53.21 51.78 50.89 50.63 50.64 51.79 51.92 52.27 52.85 53.46 53.84 53.72 53.56 53.54 53.52 53.93 53.70 53.02 53.49
54.89 54.68 54.44 54.01 53.21 52.02 51.47 50.66 50.75 51.54 51.81 52.19 52.94 53.29 53.76 53.66 53.15 52.86 53.06 53.68 53.76 53.58
55.63 55.47 55.13 54.24 53.99 53.48 52.90 52.25 51.50 51.02 51.31 51.56 51.67 52.27 52.57 52.89 52.36 52.19 52.17 52.38 52.88 53.46
55.23 55.67 55.03 55.63 54.86 54.66 53.70 53.52 52.75 51.93 51.32 50.96 51.45 46.56 44.01 48.71 51.92 51.85 51.29 51.00 51.75 52.32
56.14 55.39 55.68 55.99 55.86 56.44 55.73 55.33 53.81 53.05 52.55 51.95 52.04 44.67 43.89 42.73 50.92 51.27 51.20 51.20 51.25 51.21
49.12 51.45 55.19 56.29 55.84 55.80 56.18 56.62 56.00 55.92 55.31 54.19 53.62 44.49 43.04 41.78 48.83 50.78 51.31 50.93 50.91 50.70
43.77 46.35 47.41 49.16 51.84 56.35 56.23 56.04 56.28 56.87 56.74 56.08 55.23 46.32 43.42 42.97 49.37 50.07 50.50 51.44 51.02 50.66
39.28 41.19 40.96 42.29 44.52 46.73 48.95 54.77 56.49 56.11 55.86 48.80 47.84 35.55 36.96 42.32 52.09 49.89 49.68 50.15 49.79 43.28
35.02 36.77 36.02 37.09 38.87 40.72 43.23 43.86 40.00 37.07 34.45 33.78 32.19 34.29 35.09 35.94 38.27 47.82 48.47 46.98 42.57 33.12

GFSNIL_sfc_wetblb_096.txt.gz
Wetbulb
52.31 52.09 53.26 51.70 54.26 54.45 54.86 55.18 56.88 57.20 56.40 56.02 55.38 55.84 55.44 54.46 54.77 54.74 54.39 53.95 53.25 53.11
52.81 51.85 51.89 51.39 52.14 54.65 54.87 55.30 54.43 55.96 55.19 54.16 54.71 55.34 55.21 54.71 54.06 54.81 54.49 53.89 53.89 53.46
53.01 52.64 51.51 51.81 51.54 51.93 54.36 54.63 54.30 54.00 54.30 54.71 54.04 55.50 55.13 54.49 54.55 53.71 54.03 54.12 53.13 53.52
52.22 52.38 51.52 50.98 50.81 51.23 51.48 52.05 53.47 53.71 53.58 54.06 54.48 55.30 55.13 54.81 54.49 53.29 53.40 53.77 54.03 53.73
53.02 51.93 50.96 50.51 50.25 50.57 51.14 51.41 51.78 52.36 52.72 52.76 53.11 54.10 54.79 54.69 55.24 54.53 53.46 52.81 53.06 53.07
54.65 52.56 51.41 50.99 50.32 49.85 50.33 50.67 51.08 51.51 51.86 52.51 53.17 52.68 52.60 53.01 52.92 52.77 53.81 54.48 53.34 52.97
54.63 54.51 52.39 51.74 50.72 49.96 49.90 49.77 50.29 50.70 51.50 52.08 52.36 53.09 52.83 52.27 52.04 52.43 53.00 53.07 53.01 53.30
54.99 55.30 53.80 52.37 51.75 51.24 50.37 50.22 50.17 50.49 50.79 51.23 51.87 52.43 52.52 52.90 52.57 52.24 52.02 52.24 52.77 53.14
55.64 55.76 55.44 54.71 52.95 52.17 51.46 50.97 50.31 49.58 49.97 49.94 50.87 46.06 44.49 49.20 52.34 52.47 52.01 51.65 51.82 52.44
53.55 55.44 55.42 55.66 54.95 53.73 52.73 52.36 51.64 51.01 50.74 50.25 50.69 43.82 43.50 42.66 51.15 51.51 51.41 51.24 51.51 51.28
45.47 47.10 48.63 51.51 54.11 55.58 55.98 54.77 54.09 53.34 53.27 52.87 52.88 44.22 42.84 41.86 48.47 50.43 50.90 50.92 51.07 50.76
40.87 41.54 41.99 42.83 43.78 46.13 46.80 53.02 55.66 56.16 55.44 54.72 52.34 36.32 38.59 41.46 48.98 49.97 50.37 51.29 51.30 51.15
36.76 37.12 36.74 37.96 38.77 41.10 43.59 44.14 45.06 39.59 35.15 34.91 35.79 35.24 36.11 37.88 45.50 48.62 48.88 49.30 48.99 37.78
33.45 34.17 34.09 35.44 36.64 37.49 38.29 37.57 34.83 32.61 32.01 31.73 32.46 33.45 35.09 35.60 39.41 38.67 34.64 32.69 31.91 32.27

GFSNIL_sfc_wetblb_099.txt.gz
Wetbulb
58.26 57.58 57.60 57.29 57.11 56.83 55.90 56.43 58.78 60.24 58.99 58.34 57.85 57.81 56.28 55.76 55.56 55.65 55.73 55.24 55.13 54.92
57.87 57.43 57.03 57.00 57.26 57.25 57.37 57.08 58.03 57.89 57.73 57.41 56.76 56.41 56.11 55.09 54.55 55.16 55.30 54.39 55.07 55.35
57.53 57.45 57.56 57.43 56.95 56.89 56.55 56.63 56.68 57.29 55.93 55.38 55.72 55.88 55.66 54.89 54.41 53.85 54.97 55.28 55.38 55.31
57.15 56.83 56.74 56.81 57.11 57.31 56.43 56.20 55.79 55.85 56.41 55.27 55.29 56.17 55.40 54.67 55.12 54.39 54.15 55.81 56.76 55.81
57.24 56.68 55.84 56.03 56.17 57.18 56.74 55.46 56.74 55.97 55.28 55.49 55.23 56.28 56.19 54.99 54.88 54.64 54.03 54.12 54.00 53.42
56.44 55.74 55.75 55.43 55.47 55.94 56.65 56.87 56.64 56.64 54.55 54.06 54.89 55.43 55.75 55.53 55.59 54.63 54.20 54.02 53.59 53.63
56.32 56.09 55.91 55.97 55.34 54.85 55.55 55.91 56.07 56.45 56.73 56.85 55.69 54.42 54.51 54.93 54.92 55.45 56.12 57.12 56.74 54.77
56.46 56.24 55.61 55.93 55.79 55.32 54.67 55.11 55.83 55.67 55.80 56.33 56.38 56.24 56.01 54.53 53.79 53.87 54.66 56.90 57.03 57.82
55.80 55.79 55.32 55.51 56.44 55.33 54.89 55.01 54.74 54.39 54.85 55.05 54.58 46.61 45.11 51.93 55.76 54.99 55.34 55.43 56.13 56.45
49.60 50.73 52.34 55.62 55.24 54.79 55.52 55.43 54.72 54.49 54.57 54.69 55.23 43.54 43.80 43.31 55.54 55.75 55.93 55.84 55.67 55.60
43.70 43.99 44.97 46.26 46.61 47.25 50.39 54.51 54.33 54.14 53.93 54.02 45.85 37.36 40.41 41.14 50.25 52.32 53.05 53.47 54.04 54.55
38.99 39.44 40.45 40.71 41.34 42.77 45.81 44.81 40.25 39.64 41.57 43.91 36.80 35.62 35.86 39.20 47.13 49.12 50.46 51.57 51.05 44.33
37.08 36.66 37.40 38.24 38.87 40.61 40.85 38.37 37.06 34.72 34.12 33.48 34.22 34.62 35.95 37.21 43.75 46.37 45.34 35.40 34.24 33.46
34.81 34.88 35.33 36.17 36.89 37.90 36.82 35.19 33.47 31.61 31.11 30.93 31.87 32.51 33.70 35.65 39.20 37.82 33.28 31.19 29.70 30.64

GFSNIL_sfc_wetblb_102.txt.gz
Wetbulb
62.69 63.51 62.58 61.62 61.63 61.46 60.47 60.43 60.79 61.15 61.73 61.13 60.03 58.65 57.93 56.38 56.57 57.15 57.04 58.23 56.92 56.22
63.61 63.00 62.01 61.89 61.99 60.64 60.07 59.03 59.06 60.24 59.43 59.40 59.63 60.01 59.08 58.88 57.12 56.33 56.63 57.34 57.43 56.72
62.92 62.69 62.25 61.60 60.54 60.69 60.43 59.67 59.50 58.41 59.62 58.41 58.05 57.95 58.07 56.83 56.00 55.46 55.64 55.96 55.97 55.81
62.33 62.26 61.71 61.09 60.89 60.08 60.32 59.10 58.90 58.61 59.39 57.16 56.31 56.22 55.82 55.34 55.10 54.51 54.79 54.45 53.86 53.81
61.76 61.51 60.88 60.76 60.77 60.18 58.91 59.28 58.41 58.23 58.99 57.46 57.81 57.76 57.13 55.91 55.65 54.55 54.00 54.63 54.35 54.14
59.43 60.44 60.04 60.32 60.55 59.95 59.02 58.56 58.38 58.66 58.13 56.89 57.61 57.98 57.56 57.00 57.03 56.41 55.81 55.70 55.42 56.27
58.12 59.54 59.71 59.73 59.51 59.41 59.14 58.00 58.06 58.05 58.72 58.44 58.37 57.91 57.91 57.74 56.70 57.77 57.70 57.61 57.07 55.53
57.78 58.00 57.78 57.60 58.05 58.77 58.68 58.28 58.51 58.28 58.76 58.62 58.35 57.96 57.90 57.24 56.89 56.91 56.70 57.22 56.99 57.27
57.22 56.64 56.52 57.69 57.05 56.97 57.50 58.03 57.96 57.52 57.97 58.08 57.75 48.38 46.21 53.14 57.93 57.33 57.08 57.65 57.52 57.43
47.89 49.66 50.89 55.04 55.77 56.77 57.37 57.78 56.89 57.32 57.59 57.01 53.74 37.62 41.20 43.47 57.98 58.10 57.90 57.88 57.84 57.18
42.32 42.93 44.30 45.37 46.04 47.68 49.47 47.81 50.36 48.44 53.92 44.11 37.98 36.18 36.53 37.81 47.92 52.03 54.39 56.20 52.85 51.64
39.16 39.75 40.29 40.47 41.82 43.33 42.51 39.70 37.93 37.84 38.88 37.81 36.05 35.10 35.79 38.48 47.19 48.76 50.18 39.07 35.54 37.54
37.75 38.38 38.38 39.44 39.64 39.14 37.88 35.85 35.00 32.93 33.52 33.26 33.04 33.77 35.22 39.93 44.62 44.55 35.50 32.62 32.21 32.52
37.39 36.80 37.60 38.41 38.63 37.34 35.62 33.95 32.65 31.40 31.73 31.70 31.98 31.85 33.04 34.48 36.71 33.01 30.28 29.13 28.73 30.28

GFSNIL_sfc_wetblb_105.txt.gz
Wetbulb
66.34 65.81 64.98 64.25 63.30 63.05 61.89 61.47 62.29 62.50 63.20 62.51 61.52 59.92 59.16 58.86 58.46 59.01 58.77 58.96 58.97 58.75
66.11 65.41 64.83 64.38 63.85 63.30 63.58 61.53 61.86 62.41 62.36 61.26 61.28 60.18 58.42 57.46 56.43 57.07 57.59 57.96 59.99 56.78
64.53 65.52 64.90 63.93 62.98 63.03 61.89 60.82 61.10 61.08 61.22 61.85 60.95 60.04 58.96 57.64 57.29 57.28 57.41 57.41 57.61 57.34
63.31 64.76 64.35 63.02 62.67 61.54 60.64 60.55 60.22 60.72 59.57 58.28 57.88 58.32 58.84 58.74 57.98 56.78 56.19 56.13 56.05 55.93
63.11 63.43 62.92 62.20 62.05 61.47 59.48 60.08 60.01 60.55 58.79 59.14 58.32 57.79 57.04 55.53 55.55 55.13 54.49 55.00 54.98 54.80
61.68 61.80 62.03 61.77 61.00 59.69 59.45 59.23 59.81 60.09 59.09 58.48 58.67 58.05 57.28 56.61 56.11 56.07 56.21 56.23 55.08 54.63
59.60 60.60 61.54 61.57 60.02 59.05 59.25 58.67 58.51 58.87 59.09 58.00 57.80 58.16 58.13 57.99 57.73 57.48 57.80 57.93 57.30 56.48
59.23 60.19 60.99 60.32 58.89 58.87 58.73 58.31 58.31 58.35 58.67 58.65 57.96 57.86 58.39 58.07 57.21 57.40 57.46 57.44 57.34 57.56
57.91 58.05 58.00 57.80 57.78 58.03 57.95 58.19 57.99 57.93 58.35 58.97 58.28 38.79 44.02 52.12 58.18 57.80 57.73 57.22 57.68 58.56
47.58 48.82 49.80 55.28 56.47 56.34 57.13 58.18 57.61 57.48 57.59 50.04 42.06 36.94 38.11 39.65 56.47 57.62 57.93 57.39 56.47 57.33
42.44 43.26 44.48 45.48 46.68 46.79 45.65 44.37 44.76 44.15 43.78 41.04 36.93 35.47 36.36 36.32 51.95 53.53 51.53 42.30 41.79 44.15
39.47 39.54 40.36 39.76 39.99 40.69 38.63 36.87 36.35 36.56 36.56 36.01 34.55 34.70 35.77 39.02 47.20 46.86 37.60 34.90 34.46 36.91
38.30 38.54 38.11 38.14 36.79 36.03 35.24 33.84 33.56 32.37 32.96 32.91 32.08 33.82 35.24 41.49 45.21 35.26 32.09 31.47 31.43 32.00
37.00 37.78 37.84 37.91 36.32 34.82 33.33 32.57 31.88 31.45 31.51 31.11 31.73 31.80 33.24 33.97 33.30 31.68 29.91 29.18 29.05 30.14

GFSNIL_sfc_wetblb_108.txt.gz
Wetbulb
66.45 64.68 64.57 63.76 62.28 60.87 60.73 60.81 61.55 62.61 61.90 61.26 60.55 59.42 59.28 58.83 58.77 58.84 58.56 57.55 57.19 57.34
65.55 64.43 64.57 63.26 62.78 62.14 61.41 60.87 60.57 61.42 62.02 60.90 60.70 59.88 59.25 58.30 58.25 58.75 58.32 58.11 57.68 57.55
64.83 65.09 64.43 63.20 62.17 61.76 61.41 60.48 59.88 59.81 60.59 61.27 60.39 59.47 58.68 57.83 57.81 57.25 57.36 58.03 57.56 57.49
63.53 63.49 63.50 62.60 61.81 61.70 60.01 59.41 58.97 59.38 59.59 59.87 59.58 59.16 57.87 57.31 56.79 56.35 56.43 56.91 57.45 56.99
62.18 62.55 62.06 61.53 61.65 60.16 58.95 59.32 59.35 59.27 58.91 58.80 58.82 58.92 57.89 57.07 56.83 55.97 55.87 56.29 56.27 56.23
60.99 61.33 60.94 60.68 60.88 59.56 58.98 58.68 58.98 59.04 58.62 58.31 58.22 57.58 57.13 56.91 56.47 56.43 55.78 55.52 55.12 55.26
59.63 60.43 60.27 60.59 59.18 58.56 58.67 58.02 58.03 58.25 58.44 58.21 57.95 57.71 57.44 56.66 55.72 55.52 55.77 55.83 55.69 55.42
59.00 59.60 59.74 59.45 58.24 58.30 57.95 57.87 57.70 57.77 57.42 57.45 57.10 54.39 56.85 57.12 56.42 56.12 55.82 56.29 56.57 56.14
53.38 56.75 57.53 57.86 57.69 57.81 57.12 57.28 57.13 56.94 57.35 56.44 45.35 37.96 39.41 49.10 56.22 55.97 55.92 55.12 55.50 55.97
43.65 45.89 48.90 54.09 54.65 54.09 53.76 56.53 54.79 54.65 46.39 41.87 39.58 36.74 38.30 38.41 55.06 54.60 51.72 49.05 50.00 53.31
39.85 40.47 41.14 43.17 42.76 41.91 41.97 42.05 42.05 42.18 41.54 38.69 36.26 35.81 36.81 37.08 51.81 43.51 39.98 38.88 41.34 42.99
37.63 37.67 36.74 36.43 36.94 36.81 35.76 34.68 34.13 34.58 34.40 34.32 34.03 35.20 36.43 42.24 43.60 37.32 34.41 33.61 34.29 35.28
36.56 36.07 34.87 33.52 33.34 35.19 34.70 33.67 33.18 31.91 32.36 32.51 32.15 34.41 35.81 39.35 36.70 32.25 30.85 30.90 31.41 32.21
34.23 34.84 35.71 34.44 33.83 34.92 33.64 33.09 32.21 31.67 31.21 31.10 31.78 32.14 34.24 34.49 32.97 31.04 29.82 29.47 29.45 30.92

GFSNIL_sfc_wetblb_114.txt.gz
Wetbulb
63.52 62.37 61.98 61.20 61.25 60.64 60.62 60.55 60.75 60.95 59.97 58.04 57.44 58.15 57.30 56.94 57.84 58.46 58.36 57.28 56.88 56.44
62.81 62.35 61.47 61.09 60.96 60.70 60.67 60.88 60.58 61.28 59.58 57.76 57.46 57.95 57.36 56.70 57.04 57.66 57.98 57.30 56.94 56.64
62.24 62.55 61.92 61.02 60.27 60.20 60.15 59.84 59.94 60.42 59.78 59.16 58.45 58.09 57.66 56.80 57.53 57.28 57.08 57.54 56.86 56.84
62.09 62.33 61.38 61.15 60.84 60.22 59.60 59.50 59.55 59.78 60.08 59.36 58.21 58.23 57.70 57.47 57.31 57.50 57.14 57.30 56.96 56.80
59.37 59.64 60.82 60.76 60.48 60.18 59.52 59.77 59.33 59.39 59.43 59.41 58.85 58.44 57.50 57.14 57.30 56.98 56.94 57.06 56.86 56.50
50.92 58.89 59.03 59.14 59.55 59.46 59.08 59.02 58.13 58.26 58.62 58.81 59.05 58.35 58.25 57.90 57.22 57.24 57.16 57.14 56.88 57.04
45.73 48.81 58.93 57.62 58.30 58.47 58.59 57.99 57.50 57.49 57.62 58.80 59.00 58.96 58.42 57.68 56.94 56.80 56.84 56.84 56.90 56.78
42.24 43.76 46.80 56.90 57.08 58.13 58.10 57.97 58.07 57.81 57.04 57.42 57.88 56.02 57.69 57.54 56.82 56.28 56.04 56.36 56.44 56.56
40.50 40.84 40.88 43.32 53.58 57.46 57.51 57.31 57.31 57.12 56.42 51.80 46.23 38.33 39.89 51.73 56.24 56.12 55.62 54.84 55.48 55.82
37.81 38.74 38.84 39.12 39.18 41.10 43.83 49.84 47.97 47.52 46.46 42.54 39.79 37.24 39.12 39.10 55.86 55.30 54.52 53.66 54.42 53.84
35.89 36.34 37.48 37.60 35.75 35.08 35.60 36.43 37.28 36.96 37.59 37.52 37.37 36.43 37.93 39.56 45.54 41.97 39.76 39.53 41.08 44.43
33.80 34.01 34.85 33.76 34.15 34.51 33.58 32.89 31.91 33.01 33.25 33.73 34.54 36.18 37.90 40.20 37.99 34.79 33.46 33.85 34.69 35.53
32.05 31.91 32.42 32.78 33.24 33.28 33.22 32.59 32.29 31.53 31.85 32.59 32.40 35.02 35.56 35.85 34.71 32.04 31.15 31.48 31.87 33.16
29.60 30.28 30.53 32.11 32.15 32.33 32.15 32.32 31.89 31.22 30.90 31.34 31.73 32.24 34.39 34.04 32.30 31.30 30.36 30.22 30.17 31.46

GFSNIL_sfc_wetblb_117.txt.gz
Wetbulb
56.16 63.73 62.67 62.73 61.95 61.08 61.01 61.32 61.60 61.81 61.26 60.58 58.61 58.46 58.60 58.33 57.61 57.75 57.83 57.07 56.93 57.17
56.23 61.06 61.98 61.71 61.49 61.55 61.24 61.21 60.23 61.41 60.67 59.59 58.59 58.96 58.00 56.93 56.67 57.31 57.61 57.81 57.67 56.29
55.63 58.84 62.65 61.36 60.81 60.98 60.93 60.66 59.82 61.02 60.44 58.71 58.13 58.24 57.46 56.55 56.51 56.63 57.43 57.89 56.79 56.47
50.66 59.80 62.00 61.18 60.64 60.70 60.09 59.76 59.46 60.54 59.84 58.73 57.99 57.45 56.93 56.47 56.61 56.25 56.67 57.23 56.71 56.21
47.08 50.72 61.21 60.48 60.17 59.40 58.99 59.54 59.66 60.31 59.81 59.42 58.64 57.75 56.87 56.27 56.49 56.21 55.87 56.45 56.59 56.15
43.77 45.99 48.62 58.41 59.79 59.35 59.06 59.06 59.35 59.87 59.33 58.89 58.72 57.80 57.34 57.18 56.75 56.51 56.92 56.97 56.59 56.63
41.22 42.92 43.80 48.93 58.30 59.09 59.06 58.83 58.73 59.39 59.47 58.97 58.52 58.15 57.60 57.56 57.25 57.11 57.22 57.62 57.42 57.12
39.15 41.09 41.25 42.81 44.91 54.99 58.15 58.23 58.11 58.47 58.62 58.53 58.32 58.47 57.97 57.91 57.29 56.95 56.81 56.97 57.09 57.37
37.62 38.09 38.72 39.10 39.44 39.15 41.69 52.52 57.51 57.41 57.33 56.41 47.46 38.94 44.54 54.03 57.19 56.67 56.07 55.41 55.91 56.49
35.49 36.12 36.54 37.40 37.45 36.70 35.69 37.04 38.53 42.00 44.73 40.89 38.76 37.41 38.65 42.55 56.83 56.15 55.93 55.23 55.08 54.96
32.56 33.61 35.05 35.44 35.02 35.91 36.10 34.16 33.68 34.64 36.40 37.18 36.29 37.59 38.51 37.62 49.76 44.49 41.34 41.22 43.19 49.60
31.24 31.04 31.78 32.27 33.08 34.05 34.38 33.60 32.64 33.09 33.23 33.95 34.46 35.52 36.31 39.44 38.52 35.55 33.84 34.32 35.34 37.54
29.19 29.69 29.66 30.75 30.81 32.55 32.50 32.03 32.75 32.17 32.23 32.50 32.04 35.04 35.04 34.75 33.50 31.83 31.70 31.79 32.22 33.42
27.45 28.45 28.61 29.69 30.30 30.00 30.61 31.17 31.55 31.41 30.98 30.92 31.59 32.34 34.55 34.72 33.21 31.85 30.48 30.20 30.57 31.56

GFSNIL_sfc_wetblb_120.txt.gz
Wetbulb
52.36 55.81 59.42 62.37 61.42 61.73 61.52 61.77 62.35 62.58 62.65 62.48 61.85 61.27 60.57 60.26 59.96 59.99 59.41 58.33 58.27 57.83
50.02 52.90 56.33 60.47 61.63 61.30 60.96 59.73 60.21 62.18 62.20 61.66 61.05 59.90 59.38 59.81 59.04 58.53 58.31 57.95 57.77 57.25
47.33 49.40 51.61 57.42 62.40 60.68 60.74 60.35 60.91 61.36 61.53 61.09 60.23 59.63 59.33 59.01 58.38 57.61 57.27 57.35 57.05 57.15
44.67 46.66 49.22 57.96 60.87 61.21 59.83 60.06 59.84 60.91 60.76 60.64 59.52 59.13 58.59 58.17 57.21 56.61 55.91 56.61 57.07 56.77
42.72 44.13 45.68 47.91 53.05 60.11 59.75 59.63 59.14 59.68 60.52 59.86 59.11 58.71 58.01 56.85 56.37 55.75 55.25 56.41 56.67 56.39
39.90 41.33 42.34 44.34 47.12 54.86 59.41 59.67 59.53 59.84 59.94 59.53 58.63 57.97 57.96 57.38 56.43 56.11 55.55 55.93 56.25 56.35
38.21 39.05 40.40 41.95 42.54 44.18 47.96 58.33 58.97 59.57 59.81 59.59 59.03 58.22 57.96 57.26 56.27 55.65 55.73 56.42 56.48 56.92
37.04 38.11 38.36 39.80 40.65 41.33 40.88 42.98 45.04 58.56 59.08 59.30 58.91 58.47 58.01 57.30 56.73 56.35 55.93 56.65 57.12 57.40
35.25 35.95 36.42 36.87 37.96 38.74 39.00 39.27 38.88 40.56 44.79 51.20 44.28 40.25 44.40 53.47 56.67 56.81 56.51 56.15 56.87 57.11
33.01 33.88 34.64 34.97 35.56 35.92 36.02 36.94 36.97 36.64 36.97 36.82 37.45 36.88 42.72 42.59 57.37 56.65 56.43 56.11 55.83 55.67
30.55 30.96 32.55 33.21 33.14 33.54 34.71 34.30 34.28 34.54 35.12 35.17 35.47 35.82 37.85 40.58 50.25 46.34 40.38 39.90 42.71 52.87
29.25 29.22 29.74 29.99 31.01 32.14 32.09 32.21 32.43 32.10 32.61 33.31 33.28 35.10 35.23 36.66 36.44 34.45 33.09 33.73 34.59 35.46
27.39 28.02 28.28 29.34 29.41 30.87 31.59 31.17 31.27 30.43 30.80 31.27 31.36 33.24 34.82 35.08 33.39 31.65 31.59 31.96 32.45 33.40
26.32 26.88 27.32 28.64 29.53 29.68 30.07 30.25 30.19 29.99 30.36 30.13 30.60 30.90 32.14 33.39 32.71 31.69 31.28 31.02 30.95 31.96

GFSNIL_sfc_wetblb_123.txt.gz
Wetbulb
51.16 52.96 55.17 57.80 61.72 64.17 63.56 64.24 64.22 64.02 64.63 64.57 63.76 63.67 63.92 63.37 63.36 63.32 63.30 63.03 62.39 61.26
48.76 49.36 50.22 52.81 56.16 61.38 64.44 64.99 65.39 64.52 63.78 64.44 64.35 63.32 62.97 62.31 62.11 61.63 61.34 61.20 61.27 60.54
45.06 46.44 48.06 50.44 54.32 58.59 62.45 63.81 64.13 64.24 64.67 64.59 64.12 62.45 61.60 60.68 61.14 60.48 60.84 60.60 59.61 59.69
42.29 43.70 45.34 46.83 47.91 51.00 60.15 62.40 62.38 63.11 63.17 63.15 62.49 61.34 60.13 59.77 60.71 59.86 59.88 59.02 58.59 58.47
40.94 41.51 42.43 43.45 44.82 46.27 49.00 61.82 61.51 61.87 62.13 62.81 62.24 60.90 59.44 59.16 59.57 58.96 58.46 57.90 58.01 57.90
38.33 39.36 39.60 41.12 42.30 43.67 44.62 47.66 58.67 60.57 60.67 60.73 60.82 60.28 59.74 59.46 59.39 58.61 58.72 58.14 57.45 57.99
37.06 37.62 38.17 39.33 40.03 40.78 42.46 43.16 44.09 46.27 57.47 59.84 60.02 59.69 59.51 59.15 58.61 58.11 58.40 58.45 57.80 58.20
35.41 36.95 37.64 37.49 38.03 38.51 39.00 40.37 41.82 41.40 41.89 42.00 44.30 39.92 40.59 55.33 58.22 57.46 57.14 56.83 57.62 59.58
34.35 34.57 35.80 36.30 36.88 36.74 36.66 36.61 37.20 37.53 38.78 38.39 38.48 36.33 37.57 40.83 56.68 56.88 56.32 56.22 57.43 59.09
32.80 32.89 33.18 33.91 34.62 35.55 35.46 34.70 33.80 33.46 35.16 34.68 34.51 35.81 36.83 38.05 49.32 56.50 56.62 56.92 57.27 57.26
30.37 30.88 32.23 32.78 32.82 33.07 33.68 33.48 32.65 32.71 32.51 32.82 32.70 33.98 35.56 36.06 38.13 36.80 36.42 36.78 38.63 44.94
29.09 29.23 30.11 30.29 30.83 32.34 33.08 33.07 32.02 31.69 31.41 30.96 31.34 32.97 33.37 35.99 36.08 34.23 32.66 33.73 34.47 35.46
28.29 28.31 28.72 30.08 30.26 31.66 32.14 32.00 33.42 32.34 32.02 31.51 30.71 32.51 32.66 31.93 33.07 32.77 32.52 32.24 31.91 32.48
28.08 28.79 29.18 29.56 30.33 30.34 30.97 31.24 30.83 30.85 31.48 30.47 30.48 30.94 31.65 30.90 28.63 28.28 28.48 27.71 28.29 30.53

GFSNIL_sfc_wetblb_126.txt.gz
Wetbulb
52.65 53.99 55.13 55.22 57.67 58.64 62.01 65.77 66.16 66.00 65.93 65.93 65.64 66.83 67.63 67.91 67.24 67.20 67.38 66.41 65.71 65.01
48.82 51.53 53.52 54.79 57.88 57.74 59.79 61.23 65.82 65.75 65.09 64.17 64.52 65.26 66.35 65.40 64.58 65.09 66.53 67.60 67.49 65.68
46.61 47.87 48.69 50.42 50.44 49.94 53.13 55.63 61.28 64.91 64.75 64.18 64.19 64.02 64.08 64.04 64.47 64.23 64.40 64.36 64.67 63.35
43.23 44.94 44.94 45.21 44.91 45.73 47.85 51.79 56.64 63.57 64.25 64.25 63.42 63.74 64.12 63.48 63.74 62.71 62.96 62.22 62.31 61.59
40.46 40.85 41.21 41.79 42.26 43.43 44.69 46.31 48.45 52.30 62.89 62.44 62.78 63.97 63.22 62.54 62.25 61.43 60.60 60.50 60.29 60.59
38.56 38.87 38.87 39.54 39.98 40.83 41.69 42.70 44.08 45.15 45.37 49.28 59.49 61.00 61.50 61.77 61.46 60.97 60.58 60.63 60.20 60.13
37.40 37.70 38.63 39.13 38.95 38.68 38.92 38.66 39.58 41.23 40.96 41.55 40.46 39.87 41.19 45.39 57.22 60.03 59.90 60.05 60.40 60.24
38.73 37.78 37.64 37.95 38.97 39.17 38.13 37.52 37.06 37.75 37.74 37.39 38.00 36.61 37.72 40.84 46.38 55.59 59.22 59.10 59.40 59.95
38.29 39.70 38.02 37.52 37.58 37.71 37.96 37.30 37.72 36.08 35.54 34.87 35.30 34.90 36.19 38.11 47.02 50.52 57.20 57.64 57.97 58.67
36.07 36.81 38.01 38.73 37.91 37.40 35.58 36.47 35.52 35.27 35.36 34.02 33.38 33.93 34.94 36.67 40.23 38.78 38.44 38.06 39.09 49.62
33.09 33.93 35.58 35.84 35.73 36.26 36.18 35.52 34.68 34.47 33.70 34.15 32.96 32.94 33.04 34.93 37.24 36.01 35.75 34.51 34.02 35.44
31.15 31.28 31.94 32.00 32.36 34.17 34.63 33.96 34.36 33.54 32.81 32.42 32.53 32.40 32.24 33.10 33.85 32.53 32.84 32.43 32.80 32.14
30.54 30.83 30.46 31.53 32.11 32.94 33.77 33.69 33.81 33.44 32.64 31.24 31.37 31.56 32.21 32.67 31.01 29.02 29.37 30.15 30.20 31.14
31.17 30.68 30.64 31.41 32.30 32.02 32.58 32.68 31.78 31.87 32.23 31.73 30.82 30.80 30.85 30.95 30.98 31.04 29.92 27.55 27.53 29.29

GFSNIL_sfc_wetblb_129.txt.gz
Wetbulb
52.47 55.32 56.43 56.93 58.37 58.86 60.75 62.65 67.17 68.10 67.84 66.93 65.96 65.89 66.24 67.21 66.89 66.69 66.76 66.10 64.35 65.48
48.80 49.61 50.98 51.99 52.98 54.85 56.16 56.84 60.29 63.93 66.31 66.72 65.91 64.95 65.13 65.20 66.79 66.56 66.29 66.61 66.79 65.33
44.98 46.30 46.94 47.94 47.74 49.58 51.71 53.07 55.80 58.50 64.12 66.38 66.22 65.16 64.26 64.21 65.29 65.60 65.75 65.48 65.70 64.55
42.16 44.01 44.33 43.68 43.61 44.98 46.37 47.12 48.30 50.31 51.16 62.23 64.69 65.21 64.02 63.39 63.55 62.91 64.07 64.32 63.85 64.47
41.38 41.83 41.60 41.33 41.21 42.02 41.88 43.19 43.21 43.06 43.84 43.74 43.69 43.69 46.67 58.77 62.82 62.54 62.51 62.70 62.13 62.21
40.41 39.64 40.28 40.92 40.29 40.80 40.13 40.38 40.57 39.78 39.20 39.53 38.94 39.11 40.64 43.21 46.69 58.12 61.24 61.55 61.18 61.11
40.90 40.62 40.17 39.89 40.20 39.93 39.78 38.95 38.55 38.11 37.39 37.69 36.33 36.69 38.25 40.62 43.32 47.01 52.16 60.56 61.44 61.11
39.16 39.28 39.09 38.90 38.60 38.49 37.78 37.12 37.12 37.48 36.01 35.21 35.18 35.21 36.19 40.16 45.69 47.44 48.31 47.17 55.18 60.00
37.38 38.38 38.19 38.27 38.45 38.01 37.50 36.29 36.89 35.76 36.08 33.41 33.72 33.78 35.03 38.57 39.30 38.23 37.00 37.30 38.34 42.56
35.77 35.84 36.09 36.49 37.06 36.91 36.72 36.67 35.85 35.47 35.91 34.40 32.82 33.21 34.34 35.22 36.93 35.29 34.57 34.15 33.90 35.68
33.45 33.58 34.21 33.90 34.50 35.47 35.21 35.01 34.36 33.82 33.65 33.95 32.58 31.99 32.63 34.78 35.28 33.58 32.99 32.24 32.01 31.98
31.48 31.25 32.21 31.51 32.35 33.50 33.78 33.77 32.90 32.79 32.50 31.75 31.99 31.65 31.58 34.29 35.67 34.91 31.77 30.87 30.71 31.08
31.61 30.88 31.06 31.84 32.39 33.44 34.00 33.68 33.84 33.86 33.81 31.76 31.75 30.89 31.17 32.01 32.31 31.14 32.12 32.12 30.81 30.24
32.80 32.24 31.82 31.46 32.84 32.77 33.77 33.41 32.64 32.87 33.23 32.60 31.34 30.65 30.13 30.32 30.04 30.32 30.77 30.37 29.92 30.79

GFSNIL_sfc_wetblb_132.txt.gz
Wetbulb
49.21 50.66 51.26 51.85 52.61 52.59 56.85 57.18 57.67 59.15 65.09 65.85 65.83 66.30 66.63 66.04 65.74 64.88 63.90 63.82 63.80 63.45
46.37 46.21 46.81 48.62 50.30 50.32 49.13 52.14 53.58 54.74 54.32 59.85 65.12 65.04 64.45 63.65 64.45 64.92 64.83 64.37 64.26 63.69
43.10 43.55 44.35 44.01 44.12 45.43 45.52 46.13 46.29 48.15 48.23 48.97 50.98 57.41 63.65 63.60 64.22 63.99 64.61 64.76 64.09 63.70
41.39 41.60 42.21 42.02 41.47 42.20 41.97 42.01 42.17 42.75 42.41 43.05 43.37 43.23 45.96 48.64 58.46 62.42 63.37 63.96 63.98 63.40
39.60 40.55 40.46 40.51 40.24 40.76 40.17 40.44 39.80 39.57 39.47 38.93 39.33 40.49 40.95 42.72 45.23 48.55 52.72 62.26 62.21 62.53
39.55 39.06 38.60 38.87 38.76 38.84 39.11 38.76 37.76 37.22 36.94 36.46 36.92 37.79 39.82 42.59 45.04 46.85 49.51 50.87 47.85 58.19
37.18 38.31 38.56 38.34 37.74 37.81 37.86 37.41 37.47 36.38 35.28 35.66 35.18 35.84 37.89 41.00 40.29 40.13 40.75 41.86 42.40 44.47
35.86 36.80 37.58 37.15 37.20 36.95 36.27 36.05 36.17 36.42 33.94 33.46 33.68 33.99 35.25 38.45 37.13 37.38 37.37 37.34 38.11 41.48
34.49 34.65 35.20 35.63 35.17 35.76 34.86 34.29 34.00 33.70 33.78 31.43 32.34 33.23 34.90 35.96 35.63 34.79 33.97 33.78 34.28 36.38
32.83 32.61 33.00 33.97 33.54 33.06 33.25 33.39 32.62 31.93 32.31 30.99 30.46 32.47 33.69 35.30 36.03 33.69 32.35 31.42 31.34 31.96
31.22 31.21 32.21 32.47 32.83 32.86 32.54 32.31 32.06 31.16 30.94 30.72 30.20 31.29 31.64 32.96 33.41 33.55 33.02 31.90 31.29 30.43
30.28 29.80 30.36 29.85 31.07 32.28 31.78 31.66 31.72 31.74 30.07 28.62 28.36 30.14 30.32 30.30 29.73 30.36 30.72 30.98 31.17 30.44
31.12 29.68 28.69 29.28 29.09 30.69 30.48 29.69 30.57 29.87 30.13 29.23 27.23 29.20 29.75 29.28 28.24 27.44 28.67 29.97 30.09 30.78
31.85 30.32 29.40 28.85 28.72 28.21 28.63 28.06 26.77 27.00 27.88 26.76 25.99 26.02 28.39 28.90 26.50 26.95 27.97 28.58 28.87 29.72

GFSNIL_sfc_wetblb_135.txt.gz
Wetbulb
44.59 46.09 50.08 49.58 49.36 51.28 54.93 52.29 51.69 50.43 55.22 53.03 53.55 64.41 65.01 64.60 65.31 64.78 63.86 62.57 62.29 62.17
43.57 44.36 45.32 45.40 45.39 45.07 45.75 48.76 48.12 46.26 46.61 48.69 48.37 49.00 58.12 63.15 62.68 63.49 63.35 62.87 62.74 62.49
42.40 43.42 43.46 42.41 40.98 42.24 42.14 42.76 42.62 42.96 43.02 43.53 44.46 45.42 47.92 50.46 51.32 57.46 60.44 63.08 62.85 63.38
40.14 41.03 41.23 40.38 39.15 39.17 39.20 39.62 39.49 39.62 39.52 39.99 41.45 44.49 46.09 46.86 47.77 49.27 50.67 51.09 49.75 55.82
39.10 37.84 37.96 37.47 38.41 38.25 37.21 37.22 37.27 37.17 37.05 37.57 38.51 41.72 42.48 42.24 42.63 42.80 42.73 43.73 46.08 44.54
35.63 36.19 35.51 35.47 35.96 36.59 36.73 34.95 34.38 35.08 34.94 35.37 36.22 37.81 39.11 39.25 39.63 39.54 39.06 39.44 41.49 39.83
33.88 34.54 35.07 34.84 34.45 34.32 34.99 34.22 32.89 32.57 33.53 33.82 34.23 36.26 37.09 36.61 36.48 36.07 36.78 36.72 38.20 37.12
33.46 34.37 33.94 33.95 33.87 33.39 32.94 33.04 32.46 31.14 31.52 32.21 32.76 34.28 36.06 35.66 34.50 34.07 33.46 34.04 33.93 35.52
32.45 33.18 33.46 33.31 33.13 32.74 31.73 31.34 31.27 30.10 29.45 29.71 30.75 32.83 33.87 34.35 33.70 33.55 31.94 31.73 31.87 33.52
30.96 30.59 31.82 31.92 31.81 31.56 31.15 29.89 28.97 28.35 28.32 28.10 29.20 31.20 31.90 32.37 32.68 31.95 31.30 30.60 30.91 31.32
29.42 29.09 29.68 29.94 29.39 29.27 30.18 29.53 27.70 26.74 25.92 26.38 28.20 30.21 30.00 30.27 30.22 30.67 30.86 30.47 30.40 30.24
27.95 26.99 26.76 26.59 27.78 27.73 27.00 27.11 26.97 25.72 24.40 23.42 25.43 29.38 29.75 27.52 27.50 27.89 28.92 30.42 30.01 29.93
28.74 26.87 25.16 24.90 25.28 26.43 25.10 24.88 25.14 25.04 23.45 24.05 22.27 27.14 28.44 27.78 26.02 25.39 27.02 28.74 29.03 30.23
29.22 26.72 25.66 24.58 24.36 23.87 23.14 21.87 20.95 20.22 21.07 20.29 21.36 22.12 26.40 27.53 24.83 24.75 24.88 25.85 27.25 27.82